Time,TemperatureF,DewpointF,PressureIn,WindDirection,WindDirectionDegrees,WindSpeedMPH,WindSpeedGustMPH,Humidity,HourlyPrecipIn,Conditions,Clouds,dailyrainin,SoftwareType,DateUTC
2013-12-27 00:00:00,25.0,20.6,30.18,SSW,206,2.0,10.0,83,0.00,,---,0.00,VWS V14.00,2013-12-27 05:00:00,
2013-12-27 00:01:00,25.0,20.6,30.18,SSW,206,2.0,10.0,83,0.00,,---,0.00,VWS V14.00,2013-12-27 05:01:00,
2013-12-27 00:06:00,25.0,20.9,30.18,SSW,202,2.0,8.0,84,0.00,,---,0.00,VWS V14.00,2013-12-27 05:06:00,
2013-12-27 00:11:00,25.0,20.9,30.18,SSW,202,2.0,8.0,84,0.00,,---,0.00,VWS V14.00,2013-12-27 05:11:00,
2013-12-27 00:16:00,25.0,20.9,30.18,SSW,202,1.0,8.0,84,0.00,,---,0.00,VWS V14.00,2013-12-27 05:16:00,
2013-12-27 00:17:00,25.0,20.9,30.18,SSW,202,0.0,8.0,84,0.00,,---,0.00,VWS V14.00,2013-12-27 05:17:00,
2013-12-27 00:21:00,25.0,21.1,30.18,SSW,202,2.0,8.0,85,0.00,,---,0.00,VWS V14.00,2013-12-27 05:21:00,
2013-12-27 00:22:00,25.0,20.9,30.18,SSW,202,4.0,8.0,84,0.00,,---,0.00,VWS V14.00,2013-12-27 05:22:00,
2013-12-27 00:26:00,25.0,21.1,30.18,SSW,206,2.0,8.0,85,0.00,,---,0.00,VWS V14.00,2013-12-27 05:26:00,
2013-12-27 00:27:00,25.0,21.1,30.18,SSW,206,4.0,8.0,85,0.00,,---,0.00,VWS V14.00,2013-12-27 05:27:00,
2013-12-27 00:31:00,25.1,21.2,30.17,SSW,206,1.0,8.0,85,0.00,,---,0.00,VWS V14.00,2013-12-27 05:31:00,
2013-12-27 00:32:00,25.1,21.2,30.17,SSW,206,0.0,8.0,85,0.00,,---,0.00,VWS V14.00,2013-12-27 05:32:00,
2013-12-27 00:36:00,25.1,21.2,30.17,SSW,206,0.0,8.0,85,0.00,,---,0.00,VWS V14.00,2013-12-27 05:36:00,
2013-12-27 00:37:00,25.1,21.2,30.17,SSW,206,1.0,8.0,85,0.00,,---,0.00,VWS V14.00,2013-12-27 05:37:00,
2013-12-27 00:41:00,25.1,21.2,30.17,SSW,206,2.0,8.0,85,0.00,,---,0.00,VWS V14.00,2013-12-27 05:41:00,
2013-12-27 00:42:00,25.1,21.2,30.17,SSW,206,2.0,8.0,85,0.00,,---,0.00,VWS V14.00,2013-12-27 05:42:00,
2013-12-27 00:46:00,25.1,21.2,30.17,SSW,206,1.0,8.0,85,0.00,,---,0.00,VWS V14.00,2013-12-27 05:46:00,
2013-12-27 00:47:00,25.1,21.2,30.17,SSW,206,1.0,8.0,85,0.00,,---,0.00,VWS V14.00,2013-12-27 05:47:00,
2013-12-27 00:48:00,25.1,21.2,30.17,SSW,203,2.0,8.0,85,0.00,,---,0.00,VWS V14.00,2013-12-27 05:48:00,
2013-12-27 00:51:00,25.1,21.2,30.17,SSW,203,1.0,8.0,85,0.00,,---,0.00,VWS V14.00,2013-12-27 05:51:00,
2013-12-27 00:52:00,25.1,21.2,30.17,SSW,203,1.0,8.0,85,0.00,,---,0.00,VWS V14.00,2013-12-27 05:52:00,
2013-12-27 00:53:00,25.1,21.2,30.17,SSW,203,2.0,8.0,85,0.00,,---,0.00,VWS V14.00,2013-12-27 05:53:00,
2013-12-27 00:57:00,25.1,21.5,30.17,SSW,203,0.0,8.0,86,0.00,,---,0.00,VWS V14.00,2013-12-27 05:57:00,
2013-12-27 00:58:00,25.1,21.5,30.17,SSW,203,6.0,8.0,86,0.00,,---,0.00,VWS V14.00,2013-12-27 05:58:00,
2013-12-27 01:02:00,25.3,21.7,30.16,South,179,1.0,4.0,86,0.00,,---,0.00,VWS V14.00,2013-12-27 06:02:00,
2013-12-27 01:03:00,25.3,21.7,30.16,South,179,4.0,6.0,86,0.00,,---,0.00,VWS V14.00,2013-12-27 06:03:00,
2013-12-27 01:04:00,25.3,21.7,30.16,South,182,4.0,6.0,86,0.00,,---,0.00,VWS V14.00,2013-12-27 06:04:00,
2013-12-27 01:07:00,25.3,21.7,30.16,South,185,4.0,7.0,86,0.00,,---,0.00,VWS V14.00,2013-12-27 06:07:00,
2013-12-27 01:08:00,25.3,21.7,30.16,South,185,2.0,7.0,86,0.00,,---,0.00,VWS V14.00,2013-12-27 06:08:00,
2013-12-27 01:09:00,25.3,21.7,30.16,South,185,4.0,7.0,86,0.00,,---,0.00,VWS V14.00,2013-12-27 06:09:00,
2013-12-27 01:12:00,25.3,21.7,30.16,South,179,4.0,7.0,86,0.00,,---,0.00,VWS V14.00,2013-12-27 06:12:00,
2013-12-27 01:13:00,25.3,21.7,30.16,South,188,2.0,7.0,86,0.00,,---,0.00,VWS V14.00,2013-12-27 06:13:00,
2013-12-27 01:14:00,25.3,21.7,30.16,South,186,4.0,7.0,86,0.00,,---,0.00,VWS V14.00,2013-12-27 06:14:00,
2013-12-27 01:17:00,25.3,21.7,30.16,South,186,2.0,7.0,86,0.00,,---,0.00,VWS V14.00,2013-12-27 06:17:00,
2013-12-27 01:18:00,25.3,21.7,30.16,South,186,2.0,7.0,86,0.00,,---,0.00,VWS V14.00,2013-12-27 06:18:00,
2013-12-27 01:20:00,25.3,21.7,30.16,South,186,1.0,7.0,86,0.00,,---,0.00,VWS V14.00,2013-12-27 06:20:00,
2013-12-27 01:22:00,25.3,21.7,30.16,South,188,0.0,7.0,86,0.00,,---,0.00,VWS V14.00,2013-12-27 06:22:00,
2013-12-27 01:23:00,25.3,21.7,30.16,South,188,2.0,7.0,86,0.00,,---,0.00,VWS V14.00,2013-12-27 06:23:00,
2013-12-27 01:25:00,25.3,21.7,30.16,South,188,2.0,7.0,86,0.00,,---,0.00,VWS V14.00,2013-12-27 06:25:00,
2013-12-27 01:27:00,25.4,21.8,30.16,South,188,0.0,7.0,86,0.00,,---,0.00,VWS V14.00,2013-12-27 06:27:00,
2013-12-27 01:28:00,25.4,21.8,30.16,South,188,0.0,7.0,86,0.00,,---,0.00,VWS V14.00,2013-12-27 06:28:00,
2013-12-27 01:29:00,25.4,21.8,30.16,South,188,0.0,7.0,86,0.00,,---,0.00,VWS V14.00,2013-12-27 06:29:00,
2013-12-27 01:30:00,25.4,21.8,30.16,South,188,2.0,7.0,86,0.00,,---,0.00,VWS V14.00,2013-12-27 06:30:00,
2013-12-27 01:32:00,25.4,21.8,30.16,South,188,4.0,7.0,86,0.00,,---,0.00,VWS V14.00,2013-12-27 06:32:00,
2013-12-27 01:33:00,25.4,21.8,30.16,South,186,2.0,7.0,86,0.00,,---,0.00,VWS V14.00,2013-12-27 06:33:00,
2013-12-27 01:34:00,25.4,21.8,30.16,South,186,0.0,7.0,86,0.00,,---,0.00,VWS V14.00,2013-12-27 06:34:00,
2013-12-27 01:35:00,25.4,21.8,30.16,South,186,0.0,7.0,86,0.00,,---,0.00,VWS V14.00,2013-12-27 06:35:00,
2013-12-27 01:37:00,25.4,21.8,30.16,South,188,2.0,7.0,86,0.00,,---,0.00,VWS V14.00,2013-12-27 06:37:00,
2013-12-27 01:38:00,25.4,21.8,30.16,South,188,1.0,7.0,86,0.00,,---,0.00,VWS V14.00,2013-12-27 06:38:00,
2013-12-27 01:39:00,25.4,21.8,30.16,South,188,0.0,7.0,86,0.00,,---,0.00,VWS V14.00,2013-12-27 06:39:00,
2013-12-27 01:40:00,25.4,21.8,30.16,South,188,0.0,7.0,86,0.00,,---,0.00,VWS V14.00,2013-12-27 06:40:00,
2013-12-27 01:42:00,25.4,21.8,30.16,South,188,2.0,7.0,86,0.00,,---,0.00,VWS V14.00,2013-12-27 06:42:00,
2013-12-27 01:43:00,25.6,22.0,30.16,South,188,4.0,7.0,86,0.00,,---,0.00,VWS V14.00,2013-12-27 06:43:00,
2013-12-27 01:44:00,25.6,22.0,30.16,South,188,2.0,7.0,86,0.00,,---,0.00,VWS V14.00,2013-12-27 06:44:00,
2013-12-27 01:45:00,25.6,22.0,30.16,South,188,4.0,7.0,86,0.00,,---,0.00,VWS V14.00,2013-12-27 06:45:00,
2013-12-27 01:46:00,25.6,22.0,30.16,South,188,1.0,7.0,86,0.00,,---,0.00,VWS V14.00,2013-12-27 06:46:00,
2013-12-27 01:47:00,25.6,22.0,30.16,South,188,1.0,7.0,86,0.00,,---,0.00,VWS V14.00,2013-12-27 06:47:00,
2013-12-27 01:48:00,25.6,22.0,30.16,South,188,0.0,7.0,86,0.00,,---,0.00,VWS V14.00,2013-12-27 06:48:00,
2013-12-27 01:49:00,25.6,22.0,30.16,South,188,0.0,7.0,86,0.00,,---,0.00,VWS V14.00,2013-12-27 06:49:00,
2013-12-27 01:50:00,25.6,22.0,30.16,South,188,2.0,7.0,86,0.00,,---,0.00,VWS V14.00,2013-12-27 06:50:00,
2013-12-27 01:51:00,25.6,22.0,30.16,South,188,0.0,7.0,86,0.00,,---,0.00,VWS V14.00,2013-12-27 06:51:00,
2013-12-27 01:53:00,25.6,22.0,30.16,South,188,0.0,7.0,86,0.00,,---,0.00,VWS V14.00,2013-12-27 06:53:00,
2013-12-27 01:54:00,25.6,22.0,30.16,South,188,0.0,7.0,86,0.00,,---,0.00,VWS V14.00,2013-12-27 06:54:00,
2013-12-27 01:55:00,25.6,22.0,30.16,South,188,0.0,7.0,86,0.00,,---,0.00,VWS V14.00,2013-12-27 06:55:00,
2013-12-27 01:58:00,25.7,22.1,30.16,South,188,2.0,7.0,86,0.00,,---,0.00,VWS V14.00,2013-12-27 06:58:00,
2013-12-27 01:59:00,25.7,22.1,30.16,South,188,0.0,7.0,86,0.00,,---,0.00,VWS V14.00,2013-12-27 06:59:00,
2013-12-27 02:00:00,25.7,22.1,30.16,South,188,1.0,7.0,86,0.00,,---,0.00,VWS V14.00,2013-12-27 07:00:00,
2013-12-27 02:01:00,25.7,22.1,30.15,South,188,1.0,1.0,86,0.00,,---,0.00,VWS V14.00,2013-12-27 07:01:00,
2013-12-27 02:03:00,25.7,22.1,30.15,South,188,1.0,2.0,86,0.00,,---,0.00,VWS V14.00,2013-12-27 07:03:00,
2013-12-27 02:04:00,25.7,22.1,30.15,South,186,2.0,2.0,86,0.00,,---,0.00,VWS V14.00,2013-12-27 07:04:00,
2013-12-27 02:05:00,25.7,22.1,30.15,South,186,2.0,4.0,86,0.00,,---,0.00,VWS V14.00,2013-12-27 07:05:00,
2013-12-27 02:06:00,25.8,22.2,30.15,South,186,0.0,4.0,86,0.00,,---,0.00,VWS V14.00,2013-12-27 07:06:00,
2013-12-27 02:08:00,25.8,22.2,30.15,South,186,0.0,4.0,86,0.00,,---,0.00,VWS V14.00,2013-12-27 07:08:00,
2013-12-27 02:09:00,25.8,22.2,30.15,South,186,0.0,4.0,86,0.00,,---,0.00,VWS V14.00,2013-12-27 07:09:00,
2013-12-27 02:10:00,25.8,22.2,30.15,South,186,0.0,4.0,86,0.00,,---,0.00,VWS V14.00,2013-12-27 07:10:00,
2013-12-27 02:11:00,25.8,22.2,30.15,South,186,0.0,4.0,86,0.00,,---,0.00,VWS V14.00,2013-12-27 07:11:00,
2013-12-27 02:13:00,25.8,22.2,30.15,South,186,0.0,4.0,86,0.00,,---,0.00,VWS V14.00,2013-12-27 07:13:00,
2013-12-27 02:14:00,25.8,22.2,30.15,South,186,0.0,4.0,86,0.00,,---,0.00,VWS V14.00,2013-12-27 07:14:00,
2013-12-27 02:15:00,25.8,22.2,30.15,South,186,0.0,4.0,86,0.00,,---,0.00,VWS V14.00,2013-12-27 07:15:00,
2013-12-27 02:16:00,25.8,22.2,30.15,South,186,0.0,4.0,86,0.00,,---,0.00,VWS V14.00,2013-12-27 07:16:00,
2013-12-27 02:17:00,25.8,22.2,30.15,South,186,0.0,4.0,86,0.00,,---,0.00,VWS V14.00,2013-12-27 07:17:00,
2013-12-27 02:18:00,26.0,22.4,30.15,South,186,2.0,4.0,86,0.00,,---,0.00,VWS V14.00,2013-12-27 07:18:00,
2013-12-27 02:19:00,26.0,22.4,30.15,South,186,0.0,4.0,86,0.00,,---,0.00,VWS V14.00,2013-12-27 07:19:00,
2013-12-27 02:20:00,26.0,22.4,30.15,South,186,0.0,4.0,86,0.00,,---,0.00,VWS V14.00,2013-12-27 07:20:00,
2013-12-27 02:21:00,26.0,22.4,30.15,South,186,0.0,4.0,86,0.00,,---,0.00,VWS V14.00,2013-12-27 07:21:00,
2013-12-27 02:22:00,26.0,22.4,30.15,South,186,0.0,4.0,86,0.00,,---,0.00,VWS V14.00,2013-12-27 07:22:00,
2013-12-27 02:24:00,26.0,22.4,30.15,South,186,0.0,4.0,86,0.00,,---,0.00,VWS V14.00,2013-12-27 07:24:00,
2013-12-27 02:25:00,26.0,22.4,30.15,South,186,0.0,4.0,86,0.00,,---,0.00,VWS V14.00,2013-12-27 07:25:00,
2013-12-27 02:26:00,26.0,22.4,30.15,South,186,0.0,4.0,86,0.00,,---,0.00,VWS V14.00,2013-12-27 07:26:00,
2013-12-27 02:27:00,26.1,22.5,30.15,South,186,2.0,4.0,86,0.00,,---,0.00,VWS V14.00,2013-12-27 07:27:00,
2013-12-27 02:29:00,26.1,22.5,30.15,South,186,0.0,4.0,86,0.00,,---,0.00,VWS V14.00,2013-12-27 07:29:00,
2013-12-27 02:30:00,26.1,22.5,30.15,South,186,0.0,4.0,86,0.00,,---,0.00,VWS V14.00,2013-12-27 07:30:00,
2013-12-27 02:31:00,26.1,22.5,30.15,South,186,0.0,4.0,86,0.00,,---,0.00,VWS V14.00,2013-12-27 07:31:00,
2013-12-27 02:33:00,26.1,22.5,30.15,South,186,0.0,4.0,86,0.00,,---,0.00,VWS V14.00,2013-12-27 07:33:00,
2013-12-27 02:34:00,26.1,22.5,30.15,South,186,1.0,4.0,86,0.00,,---,0.00,VWS V14.00,2013-12-27 07:34:00,
2013-12-27 02:35:00,26.1,22.5,30.15,South,186,0.0,4.0,86,0.00,,---,0.00,VWS V14.00,2013-12-27 07:35:00,
2013-12-27 02:36:00,26.1,22.5,30.15,South,186,0.0,4.0,86,0.00,,---,0.00,VWS V14.00,2013-12-27 07:36:00,
2013-12-27 02:38:00,26.3,22.7,30.15,South,186,0.0,4.0,86,0.00,,---,0.00,VWS V14.00,2013-12-27 07:38:00,
2013-12-27 02:39:00,26.3,22.7,30.15,South,186,0.0,4.0,86,0.00,,---,0.00,VWS V14.00,2013-12-27 07:39:00,
2013-12-27 02:40:00,26.3,22.4,30.15,South,186,0.0,4.0,85,0.00,,---,0.00,VWS V14.00,2013-12-27 07:40:00,
2013-12-27 02:41:00,26.3,22.4,30.15,South,186,0.0,4.0,85,0.00,,---,0.00,VWS V14.00,2013-12-27 07:41:00,
2013-12-27 02:42:00,26.3,22.4,30.15,South,186,0.0,4.0,85,0.00,,---,0.00,VWS V14.00,2013-12-27 07:42:00,
2013-12-27 02:43:00,26.3,22.4,30.15,South,186,0.0,4.0,85,0.00,,---,0.00,VWS V14.00,2013-12-27 07:43:00,
2013-12-27 02:45:00,26.3,22.4,30.15,South,186,0.0,4.0,85,0.00,,---,0.00,VWS V14.00,2013-12-27 07:45:00,
2013-12-27 02:46:00,26.3,22.4,30.15,South,186,0.0,4.0,85,0.00,,---,0.00,VWS V14.00,2013-12-27 07:46:00,
2013-12-27 02:47:00,26.3,22.4,30.15,South,186,0.0,4.0,85,0.00,,---,0.00,VWS V14.00,2013-12-27 07:47:00,
2013-12-27 02:49:00,26.4,22.5,30.15,South,186,0.0,4.0,85,0.00,,---,0.00,VWS V14.00,2013-12-27 07:49:00,
2013-12-27 02:50:00,26.4,22.5,30.15,South,186,0.0,4.0,85,0.00,,---,0.00,VWS V14.00,2013-12-27 07:50:00,
2013-12-27 02:51:00,26.4,22.5,30.15,South,186,0.0,4.0,85,0.00,,---,0.00,VWS V14.00,2013-12-27 07:51:00,
2013-12-27 02:52:00,26.4,22.5,30.15,South,186,0.0,4.0,85,0.00,,---,0.00,VWS V14.00,2013-12-27 07:52:00,
2013-12-27 02:54:00,26.4,22.5,30.15,South,186,0.0,4.0,85,0.00,,---,0.00,VWS V14.00,2013-12-27 07:54:00,
2013-12-27 02:55:00,26.4,22.5,30.15,South,186,0.0,4.0,85,0.00,,---,0.00,VWS V14.00,2013-12-27 07:55:00,
2013-12-27 02:56:00,26.4,22.5,30.15,South,186,0.0,4.0,85,0.00,,---,0.00,VWS V14.00,2013-12-27 07:56:00,
2013-12-27 02:57:00,26.4,22.5,30.15,South,186,0.0,4.0,85,0.00,,---,0.00,VWS V14.00,2013-12-27 07:57:00,
2013-12-27 02:59:00,26.4,22.5,30.15,South,186,0.0,4.0,85,0.00,,---,0.00,VWS V14.00,2013-12-27 07:59:00,
2013-12-27 03:00:00,26.4,22.5,30.16,South,186,0.0,4.0,85,0.00,,---,0.00,VWS V14.00,2013-12-27 08:00:00,
2013-12-27 03:01:00,26.4,22.5,30.16,South,186,0.0,4.0,85,0.00,,---,0.00,VWS V14.00,2013-12-27 08:01:00,
2013-12-27 03:02:00,26.4,22.5,30.16,South,186,0.0,0.0,85,0.00,,---,0.00,VWS V14.00,2013-12-27 08:02:00,
2013-12-27 03:05:00,26.6,22.7,30.16,South,186,0.0,0.0,85,0.00,,---,0.00,VWS V14.00,2013-12-27 08:05:00,
2013-12-27 03:06:00,26.6,22.7,30.16,South,186,0.0,0.0,85,0.00,,---,0.00,VWS V14.00,2013-12-27 08:06:00,
2013-12-27 03:07:00,26.6,22.7,30.16,South,186,0.0,0.0,85,0.00,,---,0.00,VWS V14.00,2013-12-27 08:07:00,
2013-12-27 03:08:00,26.6,22.7,30.16,South,186,0.0,0.0,85,0.00,,---,0.00,VWS V14.00,2013-12-27 08:08:00,
2013-12-27 03:11:00,26.6,22.7,30.16,South,186,0.0,0.0,85,0.00,,---,0.00,VWS V14.00,2013-12-27 08:11:00,
2013-12-27 03:12:00,26.6,22.7,30.16,South,186,0.0,0.0,85,0.00,,---,0.00,VWS V14.00,2013-12-27 08:12:00,
2013-12-27 03:13:00,26.6,22.7,30.16,South,186,0.0,0.0,85,0.00,,---,0.00,VWS V14.00,2013-12-27 08:13:00,
2013-12-27 03:16:00,26.6,22.7,30.16,South,186,0.0,0.0,85,0.00,,---,0.00,VWS V14.00,2013-12-27 08:16:00,
2013-12-27 03:17:00,26.6,22.7,30.16,South,186,0.0,0.0,85,0.00,,---,0.00,VWS V14.00,2013-12-27 08:17:00,
2013-12-27 03:18:00,26.6,22.7,30.16,South,186,0.0,0.0,85,0.00,,---,0.00,VWS V14.00,2013-12-27 08:18:00,
2013-12-27 03:21:00,26.6,22.7,30.16,South,186,0.0,0.0,85,0.00,,---,0.00,VWS V14.00,2013-12-27 08:21:00,
2013-12-27 03:22:00,26.6,22.7,30.16,South,186,0.0,0.0,85,0.00,,---,0.00,VWS V14.00,2013-12-27 08:22:00,
2013-12-27 03:23:00,26.6,22.7,30.16,South,186,0.0,0.0,85,0.00,,---,0.00,VWS V14.00,2013-12-27 08:23:00,
2013-12-27 03:26:00,26.7,22.8,30.16,South,186,0.0,0.0,85,0.00,,---,0.00,VWS V14.00,2013-12-27 08:26:00,
2013-12-27 03:27:00,26.7,22.8,30.16,South,186,0.0,0.0,85,0.00,,---,0.00,VWS V14.00,2013-12-27 08:27:00,
2013-12-27 03:28:00,26.7,22.8,30.16,South,186,0.0,0.0,85,0.00,,---,0.00,VWS V14.00,2013-12-27 08:28:00,
2013-12-27 03:31:00,26.7,22.8,30.16,South,186,0.0,0.0,85,0.00,,---,0.00,VWS V14.00,2013-12-27 08:31:00,
2013-12-27 03:32:00,26.7,22.8,30.16,South,186,1.0,2.0,85,0.00,,---,0.00,VWS V14.00,2013-12-27 08:32:00,
2013-12-27 03:33:00,26.9,23.0,30.16,South,186,1.0,4.0,85,0.00,,---,0.00,VWS V14.00,2013-12-27 08:33:00,
2013-12-27 03:36:00,26.9,23.0,30.16,South,186,0.0,4.0,85,0.00,,---,0.00,VWS V14.00,2013-12-27 08:36:00,
2013-12-27 03:37:00,26.9,23.0,30.16,South,186,2.0,4.0,85,0.00,,---,0.00,VWS V14.00,2013-12-27 08:37:00,
2013-12-27 03:38:00,27.0,23.1,30.16,South,188,1.0,6.0,85,0.00,,---,0.00,VWS V14.00,2013-12-27 08:38:00,
2013-12-27 03:41:00,27.0,23.1,30.16,South,188,1.0,6.0,85,0.00,,---,0.00,VWS V14.00,2013-12-27 08:41:00,
2013-12-27 03:42:00,27.0,23.1,30.16,South,188,0.0,6.0,85,0.00,,---,0.00,VWS V14.00,2013-12-27 08:42:00,
2013-12-27 03:44:00,27.2,23.3,30.16,SW,232,2.0,7.0,85,0.00,,---,0.00,VWS V14.00,2013-12-27 08:44:00,
2013-12-27 03:47:00,27.3,23.4,30.16,SW,220,2.0,7.0,85,0.00,,---,0.00,VWS V14.00,2013-12-27 08:47:00,
2013-12-27 03:48:00,27.5,23.6,30.16,SW,220,6.0,7.0,85,0.00,,---,0.00,VWS V14.00,2013-12-27 08:48:00,
2013-12-27 03:49:00,27.5,23.6,30.16,SSW,213,4.0,7.0,85,0.00,,---,0.00,VWS V14.00,2013-12-27 08:49:00,
2013-12-27 03:52:00,27.6,23.7,30.16,SW,219,1.0,8.0,85,0.00,,---,0.00,VWS V14.00,2013-12-27 08:52:00,
2013-12-27 03:54:00,27.6,23.7,30.16,SSW,205,2.0,8.0,85,0.00,,---,0.00,VWS V14.00,2013-12-27 08:54:00,
2013-12-27 03:55:00,27.8,23.9,30.16,SSW,205,6.0,8.0,85,0.00,,---,0.00,VWS V14.00,2013-12-27 08:55:00,
2013-12-27 03:57:00,27.8,23.9,30.16,SSW,206,4.0,8.0,85,0.00,,---,0.00,VWS V14.00,2013-12-27 08:57:00,
2013-12-27 03:59:00,27.9,24.0,30.16,SSW,203,4.0,8.0,85,0.00,,---,0.00,VWS V14.00,2013-12-27 08:59:00,
2013-12-27 04:00:00,27.9,24.0,30.15,SSW,213,7.0,8.0,85,0.00,,---,0.00,VWS V14.00,2013-12-27 09:00:00,
2013-12-27 04:02:00,27.9,23.7,30.15,SSW,212,4.0,4.0,84,0.00,,---,0.00,VWS V14.00,2013-12-27 09:02:00,
2013-12-27 04:04:00,28.1,23.9,30.15,SSW,212,2.0,6.0,84,0.00,,---,0.00,VWS V14.00,2013-12-27 09:04:00,
2013-12-27 04:05:00,28.1,23.9,30.15,SSW,212,1.0,6.0,84,0.00,,---,0.00,VWS V14.00,2013-12-27 09:05:00,
2013-12-27 04:07:00,28.1,23.9,30.15,SSW,212,4.0,7.0,84,0.00,,---,0.00,VWS V14.00,2013-12-27 09:07:00,
2013-12-27 04:10:00,28.2,24.0,30.15,SSW,213,1.0,7.0,84,0.00,,---,0.00,VWS V14.00,2013-12-27 09:10:00,
2013-12-27 04:12:00,28.2,24.0,30.15,SSW,212,4.0,7.0,84,0.00,,---,0.00,VWS V14.00,2013-12-27 09:12:00,
2013-12-27 04:13:00,28.2,24.0,30.15,SSW,213,2.0,7.0,84,0.00,,---,0.00,VWS V14.00,2013-12-27 09:13:00,
2013-12-27 04:15:00,28.2,24.0,30.15,SSW,202,2.0,7.0,84,0.00,,---,0.00,VWS V14.00,2013-12-27 09:15:00,
2013-12-27 04:16:00,28.2,24.0,30.15,SSW,212,1.0,7.0,84,0.00,,---,0.00,VWS V14.00,2013-12-27 09:16:00,
2013-12-27 04:17:00,28.2,24.0,30.15,SSW,212,4.0,7.0,84,0.00,,---,0.00,VWS V14.00,2013-12-27 09:17:00,
2013-12-27 04:18:00,28.2,23.7,30.15,SW,216,2.0,7.0,83,0.00,,---,0.00,VWS V14.00,2013-12-27 09:18:00,
2013-12-27 04:21:00,28.4,23.9,30.15,SW,220,2.0,8.0,83,0.00,,---,0.00,VWS V14.00,2013-12-27 09:21:00,
2013-12-27 04:22:00,28.4,23.9,30.15,SW,219,2.0,8.0,83,0.00,,---,0.00,VWS V14.00,2013-12-27 09:22:00,
2013-12-27 04:23:00,28.4,23.9,30.15,SW,219,4.0,8.0,83,0.00,,---,0.00,VWS V14.00,2013-12-27 09:23:00,
2013-12-27 04:26:00,28.4,23.9,30.15,SW,219,2.0,8.0,83,0.00,,---,0.00,VWS V14.00,2013-12-27 09:26:00,
2013-12-27 04:27:00,28.4,23.9,30.15,SW,219,2.0,8.0,83,0.00,,---,0.00,VWS V14.00,2013-12-27 09:27:00,
2013-12-27 04:28:00,28.4,23.9,30.15,SW,219,1.0,8.0,83,0.00,,---,0.00,VWS V14.00,2013-12-27 09:28:00,
2013-12-27 04:31:00,28.4,23.9,30.15,SW,219,0.0,8.0,83,0.00,,---,0.00,VWS V14.00,2013-12-27 09:31:00,
2013-12-27 04:32:00,28.4,23.9,30.15,SW,219,4.0,8.0,83,0.00,,---,0.00,VWS V14.00,2013-12-27 09:32:00,
2013-12-27 04:33:00,28.4,23.9,30.15,SW,219,6.0,8.0,83,0.00,,---,0.00,VWS V14.00,2013-12-27 09:33:00,
2013-12-27 04:34:00,28.5,24.0,30.15,SSW,209,8.0,8.0,83,0.00,,---,0.00,VWS V14.00,2013-12-27 09:34:00,
2013-12-27 04:36:00,28.5,24.0,30.15,SSW,199,2.0,9.0,83,0.00,,---,0.00,VWS V14.00,2013-12-27 09:36:00,
2013-12-27 04:38:00,28.5,24.0,30.15,SSW,212,4.0,9.0,83,0.00,,---,0.00,VWS V14.00,2013-12-27 09:38:00,
2013-12-27 04:39:00,28.5,24.0,30.15,SSW,212,6.0,9.0,83,0.00,,---,0.00,VWS V14.00,2013-12-27 09:39:00,
2013-12-27 04:42:00,28.5,24.0,30.15,SSW,212,6.0,9.0,83,0.00,,---,0.00,VWS V14.00,2013-12-27 09:42:00,
2013-12-27 04:43:00,28.5,24.0,30.15,SSW,212,2.0,9.0,83,0.00,,---,0.00,VWS V14.00,2013-12-27 09:43:00,
2013-12-27 04:44:00,28.5,24.0,30.15,SW,215,2.0,9.0,83,0.00,,---,0.00,VWS V14.00,2013-12-27 09:44:00,
2013-12-27 04:47:00,28.5,24.0,30.15,SW,215,1.0,9.0,83,0.00,,---,0.00,VWS V14.00,2013-12-27 09:47:00,
2013-12-27 04:48:00,28.5,24.0,30.15,SW,215,6.0,9.0,83,0.00,,---,0.00,VWS V14.00,2013-12-27 09:48:00,
2013-12-27 04:49:00,28.5,24.0,30.15,SW,215,2.0,9.0,83,0.00,,---,0.00,VWS V14.00,2013-12-27 09:49:00,
2013-12-27 04:52:00,28.5,24.0,30.15,SSW,210,6.0,9.0,83,0.00,,---,0.00,VWS V14.00,2013-12-27 09:52:00,
2013-12-27 04:53:00,28.7,24.2,30.15,SSW,200,4.0,9.0,83,0.00,,---,0.00,VWS V14.00,2013-12-27 09:53:00,
2013-12-27 04:55:00,28.7,24.2,30.15,SSW,210,2.0,9.0,83,0.00,,---,0.00,VWS V14.00,2013-12-27 09:55:00,
2013-12-27 04:57:00,28.7,24.2,30.15,SSW,213,4.0,9.0,83,0.00,,---,0.00,VWS V14.00,2013-12-27 09:57:00,
2013-12-27 04:58:00,28.7,24.2,30.15,SSW,213,1.0,9.0,83,0.00,,---,0.00,VWS V14.00,2013-12-27 09:58:00,
2013-12-27 04:59:00,28.7,24.2,30.15,SSW,213,4.0,9.0,83,0.00,,---,0.00,VWS V14.00,2013-12-27 09:59:00,
2013-12-27 05:00:00,28.7,24.2,30.15,SSW,212,4.0,9.0,83,0.00,,---,0.00,VWS V14.00,2013-12-27 10:00:00,
2013-12-27 05:03:00,28.7,24.2,30.15,SSW,212,1.0,2.0,83,0.00,,---,0.00,VWS V14.00,2013-12-27 10:03:00,
2013-12-27 05:04:00,28.7,24.2,30.15,SSW,212,6.0,6.0,83,0.00,,---,0.00,VWS V14.00,2013-12-27 10:04:00,
2013-12-27 05:05:00,28.7,24.2,30.15,SSW,212,2.0,6.0,83,0.00,,---,0.00,VWS V14.00,2013-12-27 10:05:00,
2013-12-27 05:06:00,28.7,24.2,30.15,SSW,212,4.0,6.0,83,0.00,,---,0.00,VWS V14.00,2013-12-27 10:06:00,
2013-12-27 05:08:00,28.7,24.2,30.15,SSW,212,4.0,6.0,83,0.00,,---,0.00,VWS V14.00,2013-12-27 10:08:00,
2013-12-27 05:10:00,28.8,24.3,30.15,SSW,213,6.0,8.0,83,0.00,,---,0.00,VWS V14.00,2013-12-27 10:10:00,
2013-12-27 05:11:00,28.8,24.3,30.15,SSW,213,1.0,8.0,83,0.00,,---,0.00,VWS V14.00,2013-12-27 10:11:00,
2013-12-27 05:13:00,28.8,24.3,30.15,SSW,213,2.0,8.0,83,0.00,,---,0.00,VWS V14.00,2013-12-27 10:13:00,
2013-12-27 05:14:00,28.8,24.3,30.15,SSW,213,4.0,8.0,83,0.00,,---,0.00,VWS V14.00,2013-12-27 10:14:00,
2013-12-27 05:15:00,28.8,24.3,30.15,SSW,213,4.0,8.0,83,0.00,,---,0.00,VWS V14.00,2013-12-27 10:15:00,
2013-12-27 05:17:00,28.8,24.3,30.15,SSW,213,2.0,8.0,83,0.00,,---,0.00,VWS V14.00,2013-12-27 10:17:00,
2013-12-27 05:18:00,28.8,24.3,30.15,SSW,212,2.0,8.0,83,0.00,,---,0.00,VWS V14.00,2013-12-27 10:18:00,
2013-12-27 05:19:00,28.8,24.3,30.15,SSW,212,1.0,8.0,83,0.00,,---,0.00,VWS V14.00,2013-12-27 10:19:00,
2013-12-27 05:20:00,28.8,24.3,30.15,SSW,213,4.0,8.0,83,0.00,,---,0.00,VWS V14.00,2013-12-27 10:20:00,
2013-12-27 05:22:00,28.8,24.3,30.15,SSW,212,0.0,8.0,83,0.00,,---,0.00,VWS V14.00,2013-12-27 10:22:00,
2013-12-27 05:23:00,28.8,24.3,30.15,SSW,213,0.0,8.0,83,0.00,,---,0.00,VWS V14.00,2013-12-27 10:23:00,
2013-12-27 05:24:00,28.8,24.3,30.15,SSW,213,4.0,8.0,83,0.00,,---,0.00,VWS V14.00,2013-12-27 10:24:00,
2013-12-27 05:25:00,28.8,24.3,30.15,SSW,213,2.0,8.0,83,0.00,,---,0.00,VWS V14.00,2013-12-27 10:25:00,
2013-12-27 05:27:00,28.8,24.3,30.15,SSW,213,2.0,8.0,83,0.00,,---,0.00,VWS V14.00,2013-12-27 10:27:00,
2013-12-27 05:28:00,29.0,24.5,30.15,SSW,213,2.0,8.0,83,0.00,,---,0.00,VWS V14.00,2013-12-27 10:28:00,
2013-12-27 05:29:00,29.0,24.5,30.15,SW,215,0.0,8.0,83,0.00,,---,0.00,VWS V14.00,2013-12-27 10:29:00,
2013-12-27 05:30:00,29.0,24.5,30.16,SW,215,2.0,8.0,83,0.00,,---,0.00,VWS V14.00,2013-12-27 10:30:00,
2013-12-27 05:32:00,29.0,24.5,30.16,SW,215,4.0,8.0,83,0.00,,---,0.00,VWS V14.00,2013-12-27 10:32:00,
2013-12-27 05:33:00,29.0,24.5,30.16,SW,215,4.0,8.0,83,0.00,,---,0.00,VWS V14.00,2013-12-27 10:33:00,
2013-12-27 05:34:00,29.0,24.5,30.16,SW,215,6.0,8.0,83,0.00,,---,0.00,VWS V14.00,2013-12-27 10:34:00,
2013-12-27 05:35:00,29.0,24.5,30.16,SW,215,4.0,8.0,83,0.00,,---,0.00,VWS V14.00,2013-12-27 10:35:00,
2013-12-27 05:36:00,29.0,24.5,30.16,SW,215,6.0,8.0,83,0.00,,---,0.00,VWS V14.00,2013-12-27 10:36:00,
2013-12-27 05:37:00,29.0,24.5,30.16,SW,215,2.0,8.0,83,0.00,,---,0.00,VWS V14.00,2013-12-27 10:37:00,
2013-12-27 05:38:00,29.0,24.5,30.16,SW,216,7.0,8.0,83,0.00,,---,0.00,VWS V14.00,2013-12-27 10:38:00,
2013-12-27 05:39:00,29.0,24.5,30.16,SW,216,2.0,8.0,83,0.00,,---,0.00,VWS V14.00,2013-12-27 10:39:00,
2013-12-27 05:40:00,29.0,24.5,30.16,SW,216,1.0,8.0,83,0.00,,---,0.00,VWS V14.00,2013-12-27 10:40:00,
2013-12-27 05:41:00,29.0,24.5,30.16,SW,216,2.0,8.0,83,0.00,,---,0.00,VWS V14.00,2013-12-27 10:41:00,
2013-12-27 05:42:00,29.0,24.5,30.16,SW,216,2.0,8.0,83,0.00,,---,0.00,VWS V14.00,2013-12-27 10:42:00,
2013-12-27 05:43:00,29.0,24.5,30.16,SW,219,4.0,8.0,83,0.00,,---,0.00,VWS V14.00,2013-12-27 10:43:00,
2013-12-27 05:44:00,29.0,24.5,30.16,SW,219,1.0,8.0,83,0.00,,---,0.00,VWS V14.00,2013-12-27 10:44:00,
2013-12-27 05:45:00,29.1,24.6,30.16,SW,219,4.0,8.0,83,0.00,,---,0.00,VWS V14.00,2013-12-27 10:45:00,
2013-12-27 05:46:00,29.1,24.6,30.16,SW,223,1.0,8.0,83,0.00,,---,0.00,VWS V14.00,2013-12-27 10:46:00,
2013-12-27 05:47:00,29.1,24.6,30.16,SW,222,0.0,8.0,83,0.00,,---,0.00,VWS V14.00,2013-12-27 10:47:00,
2013-12-27 05:48:00,29.1,24.6,30.16,SW,222,2.0,8.0,83,0.00,,---,0.00,VWS V14.00,2013-12-27 10:48:00,
2013-12-27 05:49:00,29.1,24.6,30.16,SW,222,2.0,8.0,83,0.00,,---,0.00,VWS V14.00,2013-12-27 10:49:00,
2013-12-27 05:50:00,29.1,24.6,30.16,SW,222,2.0,8.0,83,0.00,,---,0.00,VWS V14.00,2013-12-27 10:50:00,
2013-12-27 05:51:00,29.1,24.6,30.16,SW,222,2.0,8.0,83,0.00,,---,0.00,VWS V14.00,2013-12-27 10:51:00,
2013-12-27 05:53:00,29.1,24.6,30.16,SW,222,2.0,8.0,83,0.00,,---,0.00,VWS V14.00,2013-12-27 10:53:00,
2013-12-27 05:54:00,29.1,24.6,30.16,SW,222,4.0,8.0,83,0.00,,---,0.00,VWS V14.00,2013-12-27 10:54:00,
2013-12-27 05:55:00,29.1,24.6,30.16,SW,222,1.0,8.0,83,0.00,,---,0.00,VWS V14.00,2013-12-27 10:55:00,
2013-12-27 05:56:00,29.1,24.6,30.16,SW,222,0.0,8.0,83,0.00,,---,0.00,VWS V14.00,2013-12-27 10:56:00,
2013-12-27 05:59:00,29.1,24.6,30.16,SW,222,0.0,8.0,83,0.00,,---,0.00,VWS V14.00,2013-12-27 10:59:00,
2013-12-27 06:00:00,29.1,24.6,30.16,SW,222,4.0,8.0,83,0.00,,---,0.00,VWS V14.00,2013-12-27 11:00:00,
2013-12-27 06:01:00,29.3,24.8,30.16,SW,222,0.0,2.0,83,0.00,,---,0.00,VWS V14.00,2013-12-27 11:01:00,
2013-12-27 06:04:00,29.3,24.8,30.16,SW,223,0.0,6.0,83,0.00,,---,0.00,VWS V14.00,2013-12-27 11:04:00,
2013-12-27 06:06:00,29.3,24.8,30.16,SW,224,1.0,6.0,83,0.00,,---,0.00,VWS V14.00,2013-12-27 11:06:00,
2013-12-27 06:07:00,29.3,24.8,30.16,SW,224,1.0,6.0,83,0.00,,---,0.00,VWS V14.00,2013-12-27 11:07:00,
2013-12-27 06:09:00,29.3,24.8,30.16,SW,224,0.0,6.0,83,0.00,,---,0.00,VWS V14.00,2013-12-27 11:09:00,
2013-12-27 06:10:00,29.3,24.8,30.16,SW,224,0.0,6.0,83,0.00,,---,0.00,VWS V14.00,2013-12-27 11:10:00,
2013-12-27 06:12:00,29.3,24.8,30.16,SW,224,2.0,6.0,83,0.00,,---,0.00,VWS V14.00,2013-12-27 11:12:00,
2013-12-27 06:14:00,29.3,24.8,30.16,SW,224,1.0,6.0,83,0.00,,---,0.00,VWS V14.00,2013-12-27 11:14:00,
2013-12-27 06:15:00,29.3,24.8,30.17,SW,224,1.0,6.0,83,0.00,,---,0.00,VWS V14.00,2013-12-27 11:15:00,
2013-12-27 06:17:00,29.3,24.8,30.17,SW,224,1.0,6.0,83,0.00,,---,0.00,VWS V14.00,2013-12-27 11:17:00,
2013-12-27 06:19:00,29.3,24.8,30.17,SW,224,2.0,6.0,83,0.00,,---,0.00,VWS V14.00,2013-12-27 11:19:00,
2013-12-27 06:20:00,29.3,24.8,30.17,SW,224,0.0,6.0,83,0.00,,---,0.00,VWS V14.00,2013-12-27 11:20:00,
2013-12-27 06:22:00,29.3,24.8,30.17,SW,224,1.0,6.0,83,0.00,,---,0.00,VWS V14.00,2013-12-27 11:22:00,
2013-12-27 06:24:00,29.3,24.8,30.17,SW,224,2.0,6.0,83,0.00,,---,0.00,VWS V14.00,2013-12-27 11:24:00,
2013-12-27 06:25:00,29.3,24.8,30.17,SW,224,2.0,6.0,83,0.00,,---,0.00,VWS V14.00,2013-12-27 11:25:00,
2013-12-27 06:27:00,29.3,24.8,30.17,SW,224,0.0,6.0,83,0.00,,---,0.00,VWS V14.00,2013-12-27 11:27:00,
2013-12-27 06:29:00,29.3,24.8,30.17,SW,224,0.0,6.0,83,0.00,,---,0.00,VWS V14.00,2013-12-27 11:29:00,
2013-12-27 06:30:00,29.3,24.8,30.17,SW,224,0.0,6.0,83,0.00,,---,0.00,VWS V14.00,2013-12-27 11:30:00,
2013-12-27 06:32:00,29.3,24.8,30.17,SW,224,0.0,6.0,83,0.00,,---,0.00,VWS V14.00,2013-12-27 11:32:00,
2013-12-27 06:33:00,29.3,24.8,30.17,SW,224,0.0,6.0,83,0.00,,---,0.00,VWS V14.00,2013-12-27 11:33:00,
2013-12-27 06:34:00,29.3,24.8,30.17,SW,224,0.0,6.0,83,0.00,,---,0.00,VWS V14.00,2013-12-27 11:34:00,
2013-12-27 06:35:00,29.3,24.8,30.17,SW,224,0.0,6.0,83,0.00,,---,0.00,VWS V14.00,2013-12-27 11:35:00,
2013-12-27 06:36:00,29.3,24.8,30.17,SW,224,0.0,6.0,83,0.00,,---,0.00,VWS V14.00,2013-12-27 11:36:00,
2013-12-27 06:38:00,29.3,24.8,30.17,SW,224,0.0,6.0,83,0.00,,---,0.00,VWS V14.00,2013-12-27 11:38:00,
2013-12-27 06:39:00,29.3,24.8,30.17,SW,224,0.0,6.0,83,0.00,,---,0.00,VWS V14.00,2013-12-27 11:39:00,
2013-12-27 06:40:00,29.3,24.8,30.17,SW,224,0.0,6.0,83,0.00,,---,0.00,VWS V14.00,2013-12-27 11:40:00,
2013-12-27 06:41:00,29.3,24.8,30.17,SW,224,0.0,6.0,83,0.00,,---,0.00,VWS V14.00,2013-12-27 11:41:00,
2013-12-27 06:43:00,29.3,24.8,30.17,SW,224,0.0,6.0,83,0.00,,---,0.00,VWS V14.00,2013-12-27 11:43:00,
2013-12-27 06:44:00,29.3,24.8,30.17,SW,224,0.0,6.0,83,0.00,,---,0.00,VWS V14.00,2013-12-27 11:44:00,
2013-12-27 06:46:00,29.3,24.8,30.18,SW,224,0.0,6.0,83,0.00,,---,0.00,VWS V14.00,2013-12-27 11:46:00,
2013-12-27 06:48:00,29.3,24.8,30.18,SW,224,0.0,6.0,83,0.00,,---,0.00,VWS V14.00,2013-12-27 11:48:00,
2013-12-27 06:49:00,29.4,24.9,30.18,SW,224,0.0,6.0,83,0.00,,---,0.00,VWS V14.00,2013-12-27 11:49:00,
2013-12-27 06:50:00,29.4,24.9,30.18,SW,224,0.0,6.0,83,0.00,,---,0.00,VWS V14.00,2013-12-27 11:50:00,
2013-12-27 06:51:00,29.4,24.9,30.18,SW,224,0.0,6.0,83,0.00,,---,0.00,VWS V14.00,2013-12-27 11:51:00,
2013-12-27 06:53:00,29.4,24.9,30.18,SW,224,0.0,6.0,83,0.00,,---,0.00,VWS V14.00,2013-12-27 11:53:00,
2013-12-27 06:54:00,29.4,24.9,30.18,SW,224,0.0,6.0,83,0.00,,---,0.00,VWS V14.00,2013-12-27 11:54:00,
2013-12-27 06:55:00,29.4,24.9,30.18,SW,224,0.0,6.0,83,0.00,,---,0.00,VWS V14.00,2013-12-27 11:55:00,
2013-12-27 06:56:00,29.4,24.9,30.18,SW,224,0.0,6.0,83,0.00,,---,0.00,VWS V14.00,2013-12-27 11:56:00,
2013-12-27 06:57:00,29.4,24.9,30.18,SW,224,0.0,6.0,83,0.00,,---,0.00,VWS V14.00,2013-12-27 11:57:00,
2013-12-27 06:58:00,29.4,24.9,30.18,SW,224,0.0,6.0,83,0.00,,---,0.00,VWS V14.00,2013-12-27 11:58:00,
2013-12-27 06:59:00,29.4,24.9,30.18,SW,224,0.0,6.0,83,0.00,,---,0.00,VWS V14.00,2013-12-27 11:59:00,
2013-12-27 07:00:00,29.4,24.9,30.18,SW,224,0.0,6.0,83,0.00,,---,0.00,VWS V14.00,2013-12-27 12:00:00,
2013-12-27 07:01:00,29.4,24.9,30.18,SW,224,0.0,0.0,83,0.00,,---,0.00,VWS V14.00,2013-12-27 12:01:00,
2013-12-27 07:02:00,29.4,25.2,30.18,SW,224,0.0,0.0,84,0.00,,---,0.00,VWS V14.00,2013-12-27 12:02:00,
2013-12-27 07:03:00,29.4,25.2,30.18,SW,224,0.0,0.0,84,0.00,,---,0.00,VWS V14.00,2013-12-27 12:03:00,
2013-12-27 07:04:00,29.4,24.9,30.18,SW,224,0.0,0.0,83,0.00,,---,0.00,VWS V14.00,2013-12-27 12:04:00,
2013-12-27 07:05:00,29.4,24.9,30.18,SW,224,0.0,0.0,83,0.00,,---,0.00,VWS V14.00,2013-12-27 12:05:00,
2013-12-27 07:06:00,29.4,25.2,30.18,SW,224,0.0,0.0,84,0.00,,---,0.00,VWS V14.00,2013-12-27 12:06:00,
2013-12-27 07:08:00,29.4,25.2,30.18,SW,224,0.0,2.0,84,0.00,,---,0.00,VWS V14.00,2013-12-27 12:08:00,
2013-12-27 07:09:00,29.4,25.2,30.18,SW,224,0.0,2.0,84,0.00,,---,0.00,VWS V14.00,2013-12-27 12:09:00,
2013-12-27 07:10:00,29.4,25.2,30.18,SW,224,0.0,2.0,84,0.00,,---,0.00,VWS V14.00,2013-12-27 12:10:00,
2013-12-27 07:11:00,29.4,25.2,30.18,SW,224,0.0,2.0,84,0.00,,---,0.00,VWS V14.00,2013-12-27 12:11:00,
2013-12-27 07:13:00,29.4,25.2,30.18,SW,224,0.0,2.0,84,0.00,,---,0.00,VWS V14.00,2013-12-27 12:13:00,
2013-12-27 07:14:00,29.4,25.2,30.18,SW,224,1.0,2.0,84,0.00,,---,0.00,VWS V14.00,2013-12-27 12:14:00,
2013-12-27 07:15:00,29.4,25.2,30.19,SW,224,0.0,2.0,84,0.00,,---,0.00,VWS V14.00,2013-12-27 12:15:00,
2013-12-27 07:16:00,29.4,25.2,30.19,SW,224,0.0,2.0,84,0.00,,---,0.00,VWS V14.00,2013-12-27 12:16:00,
2013-12-27 07:18:00,29.4,25.2,30.19,SW,224,0.0,2.0,84,0.00,,---,0.00,VWS V14.00,2013-12-27 12:18:00,
2013-12-27 07:19:00,29.4,25.2,30.19,SW,224,0.0,2.0,84,0.00,,---,0.00,VWS V14.00,2013-12-27 12:19:00,
2013-12-27 07:20:00,29.5,25.3,30.19,SW,224,0.0,2.0,84,0.00,,---,0.00,VWS V14.00,2013-12-27 12:20:00,
2013-12-27 07:21:00,29.5,25.3,30.19,SW,224,0.0,4.0,84,0.00,,---,0.00,VWS V14.00,2013-12-27 12:21:00,
2013-12-27 07:23:00,29.5,25.3,30.19,SW,224,0.0,4.0,84,0.00,,---,0.00,VWS V14.00,2013-12-27 12:23:00,
2013-12-27 07:24:00,29.5,25.3,30.19,SW,224,0.0,4.0,84,0.00,,---,0.00,VWS V14.00,2013-12-27 12:24:00,
2013-12-27 07:25:00,29.5,25.3,30.19,SW,224,1.0,4.0,84,0.00,,---,0.00,VWS V14.00,2013-12-27 12:25:00,
2013-12-27 07:26:00,29.5,25.3,30.19,SW,224,0.0,4.0,84,0.00,,---,0.00,VWS V14.00,2013-12-27 12:26:00,
2013-12-27 07:27:00,29.5,25.3,30.19,SW,224,0.0,4.0,84,0.00,,---,0.00,VWS V14.00,2013-12-27 12:27:00,
2013-12-27 07:29:00,29.5,25.3,30.19,SW,224,0.0,4.0,84,0.00,,---,0.00,VWS V14.00,2013-12-27 12:29:00,
2013-12-27 07:30:00,29.5,25.3,30.19,SW,224,0.0,4.0,84,0.00,,---,0.00,VWS V14.00,2013-12-27 12:30:00,
2013-12-27 07:31:00,29.5,25.3,30.19,SW,224,0.0,4.0,84,0.00,,---,0.00,VWS V14.00,2013-12-27 12:31:00,
2013-12-27 07:32:00,29.5,25.3,30.19,SW,224,0.0,4.0,84,0.00,,---,0.00,VWS V14.00,2013-12-27 12:32:00,
2013-12-27 07:34:00,29.5,25.3,30.19,SW,224,0.0,4.0,84,0.00,,---,0.00,VWS V14.00,2013-12-27 12:34:00,
2013-12-27 07:35:00,29.5,25.3,30.19,SW,224,0.0,4.0,84,0.00,,---,0.00,VWS V14.00,2013-12-27 12:35:00,
2013-12-27 07:36:00,29.5,25.3,30.19,SW,224,0.0,4.0,84,0.00,,---,0.00,VWS V14.00,2013-12-27 12:36:00,
2013-12-27 07:37:00,29.5,25.3,30.19,SW,224,0.0,4.0,84,0.00,,---,0.00,VWS V14.00,2013-12-27 12:37:00,
2013-12-27 07:39:00,29.5,25.3,30.19,SW,224,0.0,4.0,84,0.00,,---,0.00,VWS V14.00,2013-12-27 12:39:00,
2013-12-27 07:40:00,29.5,25.3,30.19,SW,224,0.0,4.0,84,0.00,,---,0.00,VWS V14.00,2013-12-27 12:40:00,
2013-12-27 07:41:00,29.5,25.3,30.19,SW,224,0.0,4.0,84,0.00,,---,0.00,VWS V14.00,2013-12-27 12:41:00,
2013-12-27 07:42:00,29.5,25.3,30.19,SW,224,0.0,4.0,84,0.00,,---,0.00,VWS V14.00,2013-12-27 12:42:00,
2013-12-27 07:44:00,29.5,25.3,30.19,SW,224,0.0,4.0,84,0.00,,---,0.00,VWS V14.00,2013-12-27 12:44:00,
2013-12-27 07:45:00,29.5,25.3,30.20,SW,224,0.0,4.0,84,0.00,,---,0.00,VWS V14.00,2013-12-27 12:45:00,
2013-12-27 07:46:00,29.5,25.3,30.20,SW,224,0.0,4.0,84,0.00,,---,0.00,VWS V14.00,2013-12-27 12:46:00,
2013-12-27 07:47:00,29.5,25.3,30.20,SW,224,0.0,4.0,84,0.00,,---,0.00,VWS V14.00,2013-12-27 12:47:00,
2013-12-27 07:49:00,29.5,25.3,30.20,SW,224,0.0,4.0,84,0.00,,---,0.00,VWS V14.00,2013-12-27 12:49:00,
2013-12-27 07:50:00,29.5,25.3,30.20,SW,224,0.0,4.0,84,0.00,,---,0.00,VWS V14.00,2013-12-27 12:50:00,
2013-12-27 07:51:00,29.5,25.3,30.20,SW,224,0.0,4.0,84,0.00,,---,0.00,VWS V14.00,2013-12-27 12:51:00,
2013-12-27 07:52:00,29.5,25.3,30.20,SW,224,0.0,4.0,84,0.00,,---,0.00,VWS V14.00,2013-12-27 12:52:00,
2013-12-27 07:55:00,29.5,25.3,30.20,SW,224,0.0,4.0,84,0.00,,---,0.00,VWS V14.00,2013-12-27 12:55:00,
2013-12-27 07:56:00,29.5,25.3,30.20,SW,224,0.0,4.0,84,0.00,,---,0.00,VWS V14.00,2013-12-27 12:56:00,
2013-12-27 07:57:00,29.5,25.3,30.20,SW,224,0.0,4.0,84,0.00,,---,0.00,VWS V14.00,2013-12-27 12:57:00,
2013-12-27 08:00:00,29.7,25.5,30.21,SW,224,0.0,4.0,84,0.00,,---,0.00,VWS V14.00,2013-12-27 13:00:00,
2013-12-27 08:01:00,29.7,25.5,30.21,SW,224,0.0,0.0,84,0.00,,---,0.00,VWS V14.00,2013-12-27 13:01:00,
2013-12-27 08:02:00,29.7,25.5,30.21,SW,224,0.0,0.0,84,0.00,,---,0.00,VWS V14.00,2013-12-27 13:02:00,
2013-12-27 08:05:00,29.7,25.5,30.21,SW,224,0.0,0.0,84,0.00,,---,0.00,VWS V14.00,2013-12-27 13:05:00,
2013-12-27 08:06:00,29.7,25.5,30.21,SW,224,0.0,0.0,84,0.00,,---,0.00,VWS V14.00,2013-12-27 13:06:00,
2013-12-27 08:07:00,29.7,25.5,30.21,SW,224,0.0,0.0,84,0.00,,---,0.00,VWS V14.00,2013-12-27 13:07:00,
2013-12-27 08:08:00,29.7,25.5,30.21,SW,224,0.0,0.0,84,0.00,,---,0.00,VWS V14.00,2013-12-27 13:08:00,
2013-12-27 08:10:00,29.7,25.5,30.21,SW,224,0.0,0.0,84,0.00,,---,0.00,VWS V14.00,2013-12-27 13:10:00,
2013-12-27 08:11:00,29.7,25.5,30.21,SW,224,0.0,0.0,84,0.00,,---,0.00,VWS V14.00,2013-12-27 13:11:00,
2013-12-27 08:12:00,29.7,25.5,30.21,SW,224,0.0,0.0,84,0.00,,---,0.00,VWS V14.00,2013-12-27 13:12:00,
2013-12-27 08:13:00,29.7,25.5,30.21,SW,224,0.0,0.0,84,0.00,,---,0.00,VWS V14.00,2013-12-27 13:13:00,
2013-12-27 08:15:00,29.7,25.5,30.21,SW,224,0.0,0.0,84,0.00,,---,0.00,VWS V14.00,2013-12-27 13:15:00,
2013-12-27 08:16:00,29.7,25.5,30.21,SW,224,0.0,0.0,84,0.00,,---,0.00,VWS V14.00,2013-12-27 13:16:00,
2013-12-27 08:17:00,29.7,25.5,30.21,SW,224,0.0,0.0,84,0.00,,---,0.00,VWS V14.00,2013-12-27 13:17:00,
2013-12-27 08:18:00,29.7,25.5,30.21,SW,224,0.0,0.0,84,0.00,,---,0.00,VWS V14.00,2013-12-27 13:18:00,
2013-12-27 08:20:00,29.7,25.5,30.21,SW,224,0.0,0.0,84,0.00,,---,0.00,VWS V14.00,2013-12-27 13:20:00,
2013-12-27 08:21:00,29.7,25.5,30.21,SW,224,0.0,0.0,84,0.00,,---,0.00,VWS V14.00,2013-12-27 13:21:00,
2013-12-27 08:22:00,29.7,25.5,30.21,SW,224,0.0,0.0,84,0.00,,---,0.00,VWS V14.00,2013-12-27 13:22:00,
2013-12-27 08:23:00,29.7,25.5,30.21,SW,224,0.0,0.0,84,0.00,,---,0.00,VWS V14.00,2013-12-27 13:23:00,
2013-12-27 08:25:00,29.7,25.5,30.21,SW,224,0.0,0.0,84,0.00,,---,0.00,VWS V14.00,2013-12-27 13:25:00,
2013-12-27 08:26:00,29.7,25.5,30.21,SW,224,0.0,0.0,84,0.00,,---,0.00,VWS V14.00,2013-12-27 13:26:00,
2013-12-27 08:27:00,29.7,25.5,30.21,SW,224,0.0,0.0,84,0.00,,---,0.00,VWS V14.00,2013-12-27 13:27:00,
2013-12-27 08:28:00,29.7,25.5,30.21,SW,224,0.0,0.0,84,0.00,,---,0.00,VWS V14.00,2013-12-27 13:28:00,
2013-12-27 08:30:00,29.7,25.5,30.22,SW,224,0.0,0.0,84,0.00,,---,0.00,VWS V14.00,2013-12-27 13:30:00,
2013-12-27 08:31:00,29.7,25.5,30.22,SW,224,0.0,0.0,84,0.00,,---,0.00,VWS V14.00,2013-12-27 13:31:00,
2013-12-27 08:32:00,29.7,25.5,30.22,SW,224,0.0,0.0,84,0.00,,---,0.00,VWS V14.00,2013-12-27 13:32:00,
2013-12-27 08:33:00,29.7,25.5,30.22,SW,224,0.0,0.0,84,0.00,,---,0.00,VWS V14.00,2013-12-27 13:33:00,
2013-12-27 08:36:00,29.7,25.5,30.22,SW,224,0.0,0.0,84,0.00,,---,0.00,VWS V14.00,2013-12-27 13:36:00,
2013-12-27 08:37:00,29.7,25.5,30.22,SW,224,0.0,0.0,84,0.00,,---,0.00,VWS V14.00,2013-12-27 13:37:00,
2013-12-27 08:38:00,29.7,25.5,30.22,SW,224,0.0,0.0,84,0.00,,---,0.00,VWS V14.00,2013-12-27 13:38:00,
2013-12-27 08:41:00,29.7,25.5,30.22,SW,224,0.0,0.0,84,0.00,,---,0.00,VWS V14.00,2013-12-27 13:41:00,
2013-12-27 08:42:00,29.7,25.5,30.22,SW,224,0.0,0.0,84,0.00,,---,0.00,VWS V14.00,2013-12-27 13:42:00,
2013-12-27 08:43:00,29.7,25.5,30.22,SW,224,0.0,0.0,84,0.00,,---,0.00,VWS V14.00,2013-12-27 13:43:00,
2013-12-27 08:46:00,29.7,25.5,30.23,SW,224,0.0,0.0,84,0.00,,---,0.00,VWS V14.00,2013-12-27 13:46:00,
2013-12-27 08:47:00,29.7,25.5,30.23,SW,224,0.0,0.0,84,0.00,,---,0.00,VWS V14.00,2013-12-27 13:47:00,
2013-12-27 08:48:00,29.8,25.6,30.23,SW,224,0.0,0.0,84,0.00,,---,0.00,VWS V14.00,2013-12-27 13:48:00,
2013-12-27 08:49:00,29.8,25.6,30.23,SW,224,0.0,0.0,84,0.00,,---,0.00,VWS V14.00,2013-12-27 13:49:00,
2013-12-27 08:51:00,29.8,25.6,30.23,SW,224,0.0,0.0,84,0.00,,---,0.00,VWS V14.00,2013-12-27 13:51:00,
2013-12-27 08:53:00,29.8,25.6,30.23,SW,224,0.0,0.0,84,0.00,,---,0.00,VWS V14.00,2013-12-27 13:53:00,
2013-12-27 08:54:00,29.8,25.6,30.23,SW,224,0.0,0.0,84,0.00,,---,0.00,VWS V14.00,2013-12-27 13:54:00,
2013-12-27 08:56:00,29.8,25.9,30.23,SW,224,0.0,0.0,85,0.00,,---,0.00,VWS V14.00,2013-12-27 13:56:00,
2013-12-27 08:58:00,30.0,26.0,30.23,SW,224,0.0,0.0,85,0.00,,---,0.00,VWS V14.00,2013-12-27 13:58:00,
2013-12-27 08:59:00,30.0,26.0,30.23,SW,224,0.0,0.0,85,0.00,,---,0.00,VWS V14.00,2013-12-27 13:59:00,
2013-12-27 09:01:00,30.0,26.0,30.23,SW,224,0.0,0.0,85,0.00,,---,0.00,VWS V14.00,2013-12-27 14:01:00,
2013-12-27 09:03:00,30.0,26.0,30.23,SW,224,0.0,0.0,85,0.00,,---,0.00,VWS V14.00,2013-12-27 14:03:00,
2013-12-27 09:04:00,30.0,26.0,30.23,SW,224,0.0,0.0,85,0.00,,---,0.00,VWS V14.00,2013-12-27 14:04:00,
2013-12-27 09:06:00,30.1,26.1,30.23,SW,224,0.0,0.0,85,0.00,,---,0.00,VWS V14.00,2013-12-27 14:06:00,
2013-12-27 09:08:00,30.1,26.1,30.23,SW,224,0.0,0.0,85,0.00,,---,0.00,VWS V14.00,2013-12-27 14:08:00,
2013-12-27 09:09:00,30.1,26.1,30.23,SW,224,0.0,0.0,85,0.00,,---,0.00,VWS V14.00,2013-12-27 14:09:00,
2013-12-27 09:11:00,30.1,26.1,30.23,SW,224,0.0,0.0,85,0.00,,---,0.00,VWS V14.00,2013-12-27 14:11:00,
2013-12-27 09:13:00,30.3,26.3,30.23,SW,224,0.0,0.0,85,0.00,,---,0.00,VWS V14.00,2013-12-27 14:13:00,
2013-12-27 09:14:00,30.3,26.3,30.23,SW,224,0.0,0.0,85,0.00,,---,0.00,VWS V14.00,2013-12-27 14:14:00,
2013-12-27 09:16:00,30.3,26.3,30.24,SW,224,0.0,0.0,85,0.00,,---,0.00,VWS V14.00,2013-12-27 14:16:00,
2013-12-27 09:19:00,30.4,26.4,30.24,SW,224,0.0,0.0,85,0.00,,---,0.00,VWS V14.00,2013-12-27 14:19:00,
2013-12-27 09:20:00,30.4,26.4,30.24,SW,224,0.0,0.0,85,0.00,,---,0.00,VWS V14.00,2013-12-27 14:20:00,
2013-12-27 09:21:00,30.4,26.4,30.24,SW,224,0.0,0.0,85,0.00,,---,0.00,VWS V14.00,2013-12-27 14:21:00,
2013-12-27 09:24:00,30.6,26.6,30.24,SW,224,0.0,0.0,85,0.00,,---,0.00,VWS V14.00,2013-12-27 14:24:00,
2013-12-27 09:25:00,30.6,26.6,30.24,SW,224,0.0,0.0,85,0.00,,---,0.00,VWS V14.00,2013-12-27 14:25:00,
2013-12-27 09:26:00,30.6,26.6,30.24,SW,224,0.0,0.0,85,0.00,,---,0.00,VWS V14.00,2013-12-27 14:26:00,
2013-12-27 09:27:00,30.6,26.6,30.24,SW,224,0.0,0.0,85,0.00,,---,0.00,VWS V14.00,2013-12-27 14:27:00,
2013-12-27 09:29:00,30.6,26.6,30.24,SW,224,0.0,0.0,85,0.00,,---,0.00,VWS V14.00,2013-12-27 14:29:00,
2013-12-27 09:30:00,30.6,26.4,30.24,SW,224,0.0,0.0,84,0.00,,---,0.00,VWS V14.00,2013-12-27 14:30:00,
2013-12-27 09:32:00,30.7,26.7,30.24,SW,224,0.0,0.0,85,0.00,,---,0.00,VWS V14.00,2013-12-27 14:32:00,
2013-12-27 09:34:00,30.7,26.7,30.24,SW,224,0.0,0.0,85,0.00,,---,0.00,VWS V14.00,2013-12-27 14:34:00,
2013-12-27 09:35:00,30.7,26.7,30.24,SW,224,0.0,0.0,85,0.00,,---,0.00,VWS V14.00,2013-12-27 14:35:00,
2013-12-27 09:37:00,30.9,26.9,30.24,SW,224,0.0,0.0,85,0.00,,---,0.00,VWS V14.00,2013-12-27 14:37:00,
2013-12-27 09:39:00,30.9,26.6,30.24,SW,224,0.0,0.0,84,0.00,,---,0.00,VWS V14.00,2013-12-27 14:39:00,
2013-12-27 09:40:00,30.9,26.6,30.24,SW,224,0.0,0.0,84,0.00,,---,0.00,VWS V14.00,2013-12-27 14:40:00,
2013-12-27 09:42:00,31.0,26.7,30.24,SW,224,0.0,0.0,84,0.00,,---,0.00,VWS V14.00,2013-12-27 14:42:00,
2013-12-27 09:45:00,31.2,26.9,30.24,SW,224,0.0,0.0,84,0.00,,---,0.00,VWS V14.00,2013-12-27 14:45:00,
2013-12-27 09:46:00,31.2,26.9,30.24,SW,224,0.0,0.0,84,0.00,,---,0.00,VWS V14.00,2013-12-27 14:46:00,
2013-12-27 09:47:00,31.2,26.9,30.24,SW,224,0.0,0.0,84,0.00,,---,0.00,VWS V14.00,2013-12-27 14:47:00,
2013-12-27 09:48:00,31.2,26.9,30.24,SW,224,0.0,0.0,84,0.00,,---,0.00,VWS V14.00,2013-12-27 14:48:00,
2013-12-27 09:50:00,31.3,27.0,30.24,SW,224,0.0,0.0,84,0.00,,---,0.00,VWS V14.00,2013-12-27 14:50:00,
2013-12-27 09:51:00,31.3,27.0,30.24,SW,224,0.0,0.0,84,0.00,,---,0.00,VWS V14.00,2013-12-27 14:51:00,
2013-12-27 09:52:00,31.3,27.0,30.24,SW,224,0.0,0.0,84,0.00,,---,0.00,VWS V14.00,2013-12-27 14:52:00,
2013-12-27 09:53:00,31.3,27.0,30.24,SW,224,0.0,0.0,84,0.00,,---,0.00,VWS V14.00,2013-12-27 14:53:00,
2013-12-27 09:55:00,31.5,27.2,30.24,SW,224,0.0,0.0,84,0.00,,---,0.00,VWS V14.00,2013-12-27 14:55:00,
2013-12-27 09:56:00,31.5,27.2,30.24,SW,224,0.0,0.0,84,0.00,,---,0.00,VWS V14.00,2013-12-27 14:56:00,
2013-12-27 09:57:00,31.5,27.2,30.24,SW,224,0.0,0.0,84,0.00,,---,0.00,VWS V14.00,2013-12-27 14:57:00,
2013-12-27 09:58:00,31.5,27.2,30.24,SW,224,0.0,0.0,84,0.00,,---,0.00,VWS V14.00,2013-12-27 14:58:00,
2013-12-27 10:00:00,31.6,27.3,30.24,SW,224,0.0,0.0,84,0.00,,---,0.00,VWS V14.00,2013-12-27 15:00:00,
2013-12-27 10:01:00,31.6,27.3,30.24,SW,224,0.0,0.0,84,0.00,,---,0.00,VWS V14.00,2013-12-27 15:01:00,
2013-12-27 10:02:00,31.6,27.3,30.24,SW,224,0.0,0.0,84,0.00,,---,0.00,VWS V14.00,2013-12-27 15:02:00,
2013-12-27 10:04:00,31.6,27.3,30.24,SW,224,0.0,0.0,84,0.00,,---,0.00,VWS V14.00,2013-12-27 15:04:00,
2013-12-27 10:05:00,31.8,27.5,30.24,SW,224,0.0,0.0,84,0.00,,---,0.00,VWS V14.00,2013-12-27 15:05:00,
2013-12-27 10:06:00,31.8,27.5,30.24,SW,224,0.0,0.0,84,0.00,,---,0.00,VWS V14.00,2013-12-27 15:06:00,
2013-12-27 10:07:00,31.8,27.5,30.24,SW,224,0.0,0.0,84,0.00,,---,0.00,VWS V14.00,2013-12-27 15:07:00,
2013-12-27 10:09:00,31.8,27.5,30.24,SW,224,0.0,0.0,84,0.00,,---,0.00,VWS V14.00,2013-12-27 15:09:00,
2013-12-27 10:10:00,31.9,27.6,30.24,SW,224,0.0,0.0,84,0.00,,---,0.00,VWS V14.00,2013-12-27 15:10:00,
2013-12-27 10:11:00,31.9,27.6,30.24,SW,224,0.0,0.0,84,0.00,,---,0.00,VWS V14.00,2013-12-27 15:11:00,
2013-12-27 10:12:00,31.9,27.6,30.24,SW,224,0.0,0.0,84,0.00,,---,0.00,VWS V14.00,2013-12-27 15:12:00,
2013-12-27 10:14:00,32.1,27.5,30.24,SW,224,0.0,0.0,83,0.00,,---,0.00,VWS V14.00,2013-12-27 15:14:00,
2013-12-27 10:16:00,32.1,27.5,30.24,SW,224,0.0,0.0,83,0.00,,---,0.00,VWS V14.00,2013-12-27 15:16:00,
2013-12-27 10:17:00,32.1,27.5,30.24,SW,224,0.0,0.0,83,0.00,,---,0.00,VWS V14.00,2013-12-27 15:17:00,
2013-12-27 10:19:00,32.2,27.6,30.24,SW,224,0.0,0.0,83,0.00,,---,0.00,VWS V14.00,2013-12-27 15:19:00,
2013-12-27 10:21:00,32.2,27.6,30.24,SW,224,0.0,0.0,83,0.00,,---,0.00,VWS V14.00,2013-12-27 15:21:00,
2013-12-27 10:22:00,32.4,27.8,30.24,SW,224,0.0,0.0,83,0.00,,---,0.00,VWS V14.00,2013-12-27 15:22:00,
2013-12-27 10:25:00,32.4,27.8,30.24,SW,224,0.0,0.0,83,0.00,,---,0.00,VWS V14.00,2013-12-27 15:25:00,
2013-12-27 10:26:00,32.5,27.9,30.24,SW,224,0.0,0.0,83,0.00,,---,0.00,VWS V14.00,2013-12-27 15:26:00,
2013-12-27 10:27:00,32.5,27.9,30.24,SW,224,0.0,0.0,83,0.00,,---,0.00,VWS V14.00,2013-12-27 15:27:00,
2013-12-27 10:30:00,32.7,28.1,30.24,SW,224,0.0,0.0,83,0.00,,---,0.00,VWS V14.00,2013-12-27 15:30:00,
2013-12-27 10:31:00,32.7,28.1,30.24,SW,224,0.0,0.0,83,0.00,,---,0.00,VWS V14.00,2013-12-27 15:31:00,
2013-12-27 10:32:00,32.7,28.1,30.24,SW,224,0.0,0.0,83,0.00,,---,0.00,VWS V14.00,2013-12-27 15:32:00,
2013-12-27 10:33:00,32.7,28.1,30.24,SW,224,0.0,0.0,83,0.00,,---,0.00,VWS V14.00,2013-12-27 15:33:00,
2013-12-27 10:35:00,32.8,27.9,30.24,SW,224,0.0,1.0,82,0.00,,---,0.00,VWS V14.00,2013-12-27 15:35:00,
2013-12-27 10:36:00,32.8,27.9,30.24,SW,224,0.0,1.0,82,0.00,,---,0.00,VWS V14.00,2013-12-27 15:36:00,
2013-12-27 10:37:00,32.8,27.9,30.24,SW,224,0.0,1.0,82,0.00,,---,0.00,VWS V14.00,2013-12-27 15:37:00,
2013-12-27 10:38:00,32.8,27.9,30.24,SW,222,0.0,1.0,82,0.00,,---,0.00,VWS V14.00,2013-12-27 15:38:00,
2013-12-27 10:41:00,32.9,28.0,30.24,SW,222,0.0,1.0,82,0.00,,---,0.00,VWS V14.00,2013-12-27 15:41:00,
2013-12-27 10:42:00,32.9,28.0,30.24,SW,222,0.0,1.0,82,0.00,,---,0.00,VWS V14.00,2013-12-27 15:42:00,
2013-12-27 10:43:00,33.1,28.2,30.24,SW,222,0.0,1.0,82,0.00,,---,0.00,VWS V14.00,2013-12-27 15:43:00,
2013-12-27 10:44:00,33.1,28.2,30.24,SW,222,1.0,2.0,82,0.00,,---,0.00,VWS V14.00,2013-12-27 15:44:00,
2013-12-27 10:46:00,33.1,28.2,30.24,SW,222,0.0,6.0,82,0.00,,---,0.00,VWS V14.00,2013-12-27 15:46:00,
2013-12-27 10:47:00,33.2,28.3,30.24,SW,222,1.0,6.0,82,0.00,,---,0.00,VWS V14.00,2013-12-27 15:47:00,
2013-12-27 10:48:00,33.2,28.0,30.24,SW,222,0.0,6.0,81,0.00,,---,0.00,VWS V14.00,2013-12-27 15:48:00,
2013-12-27 10:49:00,33.2,28.0,30.24,SW,222,0.0,6.0,81,0.00,,---,0.00,VWS V14.00,2013-12-27 15:49:00,
2013-12-27 10:51:00,33.4,28.2,30.24,SW,222,2.0,6.0,81,0.00,,---,0.00,VWS V14.00,2013-12-27 15:51:00,
2013-12-27 10:52:00,33.4,28.2,30.24,SW,222,2.0,6.0,81,0.00,,---,0.00,VWS V14.00,2013-12-27 15:52:00,
2013-12-27 10:53:00,33.4,28.2,30.24,SW,222,2.0,6.0,81,0.00,,---,0.00,VWS V14.00,2013-12-27 15:53:00,
2013-12-27 10:54:00,33.5,28.3,30.24,SW,222,0.0,6.0,81,0.00,,---,0.00,VWS V14.00,2013-12-27 15:54:00,
2013-12-27 10:56:00,33.5,28.3,30.24,SW,222,2.0,6.0,81,0.00,,---,0.00,VWS V14.00,2013-12-27 15:56:00,
2013-12-27 10:57:00,33.7,28.5,30.24,SW,222,2.0,6.0,81,0.00,,---,0.00,VWS V14.00,2013-12-27 15:57:00,
2013-12-27 10:58:00,33.7,28.5,30.24,SW,222,2.0,6.0,81,0.00,,---,0.00,VWS V14.00,2013-12-27 15:58:00,
2013-12-27 11:00:00,33.7,28.2,30.24,SW,222,0.0,6.0,80,0.00,,---,0.00,VWS V14.00,2013-12-27 16:00:00,
2013-12-27 11:01:00,33.8,28.3,30.24,SW,220,1.0,2.0,80,0.00,,---,0.00,VWS V14.00,2013-12-27 16:01:00,
2013-12-27 11:02:00,33.8,28.3,30.24,WSW,244,4.0,6.0,80,0.00,,---,0.00,VWS V14.00,2013-12-27 16:02:00,
2013-12-27 11:03:00,33.8,28.3,30.24,SW,217,2.0,6.0,80,0.00,,---,0.00,VWS V14.00,2013-12-27 16:03:00,
2013-12-27 11:04:00,33.8,28.3,30.24,SW,219,4.0,8.0,80,0.00,,---,0.00,VWS V14.00,2013-12-27 16:04:00,
2013-12-27 11:05:00,33.8,28.3,30.24,SW,219,0.0,8.0,80,0.00,,---,0.00,VWS V14.00,2013-12-27 16:05:00,
2013-12-27 11:06:00,34.0,28.5,30.24,SW,219,1.0,8.0,80,0.00,,---,0.00,VWS V14.00,2013-12-27 16:06:00,
2013-12-27 11:07:00,34.0,28.5,30.24,SW,219,0.0,8.0,80,0.00,,---,0.00,VWS V14.00,2013-12-27 16:07:00,
2013-12-27 11:08:00,34.0,28.5,30.24,SW,217,1.0,8.0,80,0.00,,---,0.00,VWS V14.00,2013-12-27 16:08:00,
2013-12-27 11:09:00,34.1,28.3,30.24,SW,217,1.0,8.0,79,0.00,,---,0.00,VWS V14.00,2013-12-27 16:09:00,
2013-12-27 11:10:00,34.1,28.3,30.24,SW,217,2.0,8.0,79,0.00,,---,0.00,VWS V14.00,2013-12-27 16:10:00,
2013-12-27 11:12:00,34.3,28.5,30.24,SW,220,1.0,8.0,79,0.00,,---,0.00,VWS V14.00,2013-12-27 16:12:00,
2013-12-27 11:13:00,34.3,28.5,30.24,SSW,205,6.0,8.0,79,0.00,,---,0.00,VWS V14.00,2013-12-27 16:13:00,
2013-12-27 11:14:00,34.4,28.6,30.24,SSW,205,6.0,8.0,79,0.00,,---,0.00,VWS V14.00,2013-12-27 16:14:00,
2013-12-27 11:15:00,34.4,28.6,30.23,SSE,161,7.0,8.0,79,0.00,,---,0.00,VWS V14.00,2013-12-27 16:15:00,
2013-12-27 11:17:00,34.6,28.8,30.23,South,182,0.0,8.0,79,0.00,,---,0.00,VWS V14.00,2013-12-27 16:17:00,
2013-12-27 11:18:00,34.7,28.5,30.23,South,182,0.0,8.0,78,0.00,,---,0.00,VWS V14.00,2013-12-27 16:18:00,
2013-12-27 11:19:00,34.7,28.5,30.23,South,181,2.0,8.0,78,0.00,,---,0.00,VWS V14.00,2013-12-27 16:19:00,
2013-12-27 11:20:00,34.9,28.8,30.23,South,182,4.0,8.0,78,0.00,,---,0.00,VWS V14.00,2013-12-27 16:20:00,
2013-12-27 11:22:00,34.9,28.8,30.23,SW,220,2.0,8.0,78,0.00,,---,0.00,VWS V14.00,2013-12-27 16:22:00,
2013-12-27 11:23:00,35.0,28.9,30.23,SW,222,1.0,8.0,78,0.00,,---,0.00,VWS V14.00,2013-12-27 16:23:00,
2013-12-27 11:24:00,35.0,28.9,30.23,SW,224,4.0,8.0,78,0.00,,---,0.00,VWS V14.00,2013-12-27 16:24:00,
2013-12-27 11:25:00,35.0,28.5,30.23,SSE,160,4.0,8.0,77,0.00,,---,0.00,VWS V14.00,2013-12-27 16:25:00,
2013-12-27 11:27:00,35.2,28.7,30.23,SSW,200,6.0,8.0,77,0.00,,---,0.00,VWS V14.00,2013-12-27 16:27:00,
2013-12-27 11:28:00,35.2,28.7,30.23,SSW,202,2.0,8.0,77,0.00,,---,0.00,VWS V14.00,2013-12-27 16:28:00,
2013-12-27 11:29:00,35.3,28.8,30.23,South,179,2.0,8.0,77,0.00,,---,0.00,VWS V14.00,2013-12-27 16:29:00,
2013-12-27 11:30:00,35.3,28.8,30.23,SSE,160,2.0,8.0,77,0.00,,---,0.00,VWS V14.00,2013-12-27 16:30:00,
2013-12-27 11:32:00,35.5,29.0,30.23,SSE,164,2.0,8.0,77,0.00,,---,0.00,VWS V14.00,2013-12-27 16:32:00,
2013-12-27 11:33:00,35.5,29.0,30.23,WSW,250,1.0,8.0,77,0.00,,---,0.00,VWS V14.00,2013-12-27 16:33:00,
2013-12-27 11:34:00,35.6,29.1,30.23,SW,219,2.0,8.0,77,0.00,,---,0.00,VWS V14.00,2013-12-27 16:34:00,
2013-12-27 11:35:00,35.6,28.8,30.23,SW,230,4.0,8.0,76,0.00,,---,0.00,VWS V14.00,2013-12-27 16:35:00,
2013-12-27 11:36:00,35.6,28.8,30.23,SSW,205,2.0,8.0,76,0.00,,---,0.00,VWS V14.00,2013-12-27 16:36:00,
2013-12-27 11:37:00,35.6,28.8,30.23,West,267,1.0,9.0,76,0.01,,---,0.01,VWS V14.00,2013-12-27 16:37:00,
2013-12-27 11:38:00,35.6,28.8,30.23,WNW,298,7.0,9.0,76,0.01,,---,0.01,VWS V14.00,2013-12-27 16:38:00,
2013-12-27 11:39:00,35.5,28.4,30.23,SW,232,9.0,9.0,75,0.01,,---,0.01,VWS V14.00,2013-12-27 16:39:00,
2013-12-27 11:40:00,35.5,28.4,30.23,SW,219,6.0,13.0,75,0.01,,---,0.01,VWS V14.00,2013-12-27 16:40:00,
2013-12-27 11:41:00,35.5,28.4,30.23,SSW,200,4.0,13.0,75,0.01,,---,0.01,VWS V14.00,2013-12-27 16:41:00,
2013-12-27 11:43:00,35.5,28.4,30.23,WSW,239,6.0,13.0,75,0.01,,---,0.01,VWS V14.00,2013-12-27 16:43:00,
2013-12-27 11:45:00,35.3,28.2,30.23,SW,230,8.0,13.0,75,0.01,,---,0.01,VWS V14.00,2013-12-27 16:45:00,
2013-12-27 11:46:00,35.5,28.7,30.22,SW,222,6.0,13.0,76,0.01,,---,0.01,VWS V14.00,2013-12-27 16:46:00,
2013-12-27 11:48:00,35.5,28.7,30.22,SW,220,7.0,13.0,76,0.01,,---,0.01,VWS V14.00,2013-12-27 16:48:00,
2013-12-27 11:49:00,35.5,28.7,30.22,SW,215,9.0,13.0,76,0.01,,---,0.01,VWS V14.00,2013-12-27 16:49:00,
2013-12-27 11:50:00,35.5,28.7,30.22,SW,219,4.0,13.0,76,0.01,,---,0.01,VWS V14.00,2013-12-27 16:50:00,
2013-12-27 11:51:00,35.5,28.7,30.22,SSW,203,7.0,13.0,76,0.01,,---,0.01,VWS V14.00,2013-12-27 16:51:00,
2013-12-27 11:53:00,35.5,28.4,30.22,SSW,213,6.0,13.0,75,0.01,,---,0.01,VWS V14.00,2013-12-27 16:53:00,
2013-12-27 11:54:00,35.6,28.5,30.22,SSW,205,9.0,13.0,75,0.01,,---,0.01,VWS V14.00,2013-12-27 16:54:00,
2013-12-27 11:56:00,35.6,28.5,30.22,SW,232,7.0,13.0,75,0.01,,---,0.01,VWS V14.00,2013-12-27 16:56:00,
2013-12-27 11:57:00,35.6,28.5,30.22,SW,232,2.0,13.0,75,0.01,,---,0.01,VWS V14.00,2013-12-27 16:57:00,
2013-12-27 11:58:00,35.6,28.5,30.22,SW,223,0.0,13.0,75,0.02,,---,0.02,VWS V14.00,2013-12-27 16:58:00,
2013-12-27 11:59:00,35.8,28.7,30.22,SSW,210,9.0,13.0,75,0.02,,---,0.02,VWS V14.00,2013-12-27 16:59:00,
2013-12-27 12:01:00,35.9,28.8,30.21,SSW,198,6.0,6.0,75,0.02,,---,0.02,VWS V14.00,2013-12-27 17:01:00,
2013-12-27 12:02:00,35.9,28.8,30.21,South,191,4.0,6.0,75,0.02,,---,0.02,VWS V14.00,2013-12-27 17:02:00,
2013-12-27 12:03:00,35.9,28.8,30.21,South,191,2.0,6.0,75,0.02,,---,0.02,VWS V14.00,2013-12-27 17:03:00,
2013-12-27 12:04:00,36.0,28.9,30.21,WSW,244,2.0,6.0,75,0.02,,---,0.02,VWS V14.00,2013-12-27 17:04:00,
2013-12-27 12:07:00,36.0,28.9,30.21,SW,216,6.0,11.0,75,0.02,,---,0.02,VWS V14.00,2013-12-27 17:07:00,
2013-12-27 12:08:00,36.2,29.0,30.21,SSW,206,4.0,11.0,75,0.02,,---,0.02,VWS V14.00,2013-12-27 17:08:00,
2013-12-27 12:09:00,36.3,29.1,30.21,SSE,151,1.0,11.0,75,0.02,,---,0.02,VWS V14.00,2013-12-27 17:09:00,
2013-12-27 12:12:00,36.6,29.4,30.21,SW,223,1.0,11.0,75,0.02,,---,0.02,VWS V14.00,2013-12-27 17:12:00,
2013-12-27 12:13:00,36.6,29.4,30.21,SSE,160,4.0,11.0,75,0.02,,---,0.02,VWS V14.00,2013-12-27 17:13:00,
2013-12-27 12:14:00,36.8,29.6,30.21,SSW,198,7.0,11.0,75,0.02,,---,0.02,VWS V14.00,2013-12-27 17:14:00,
2013-12-27 12:17:00,36.9,29.7,30.20,SE,126,6.0,11.0,75,0.02,,---,0.02,VWS V14.00,2013-12-27 17:17:00,
2013-12-27 12:18:00,36.9,29.7,30.20,SSW,213,8.0,11.0,75,0.02,,---,0.02,VWS V14.00,2013-12-27 17:18:00,
2013-12-27 12:19:00,36.9,29.4,30.20,SSE,161,2.0,11.0,74,0.02,,---,0.02,VWS V14.00,2013-12-27 17:19:00,
2013-12-27 12:22:00,36.9,29.4,30.20,SSW,213,4.0,11.0,74,0.02,,---,0.02,VWS V14.00,2013-12-27 17:22:00,
2013-12-27 12:23:00,37.0,29.5,30.20,SSW,200,2.0,11.0,74,0.02,,---,0.02,VWS V14.00,2013-12-27 17:23:00,
2013-12-27 12:24:00,37.0,29.5,30.20,SSW,195,1.0,11.0,74,0.02,,---,0.02,VWS V14.00,2013-12-27 17:24:00,
2013-12-27 12:25:00,37.0,29.5,30.20,SSW,213,6.0,11.0,74,0.02,,---,0.02,VWS V14.00,2013-12-27 17:25:00,
2013-12-27 12:28:00,37.0,29.5,30.20,SSE,161,6.0,11.0,74,0.02,,---,0.02,VWS V14.00,2013-12-27 17:28:00,
2013-12-27 12:29:00,37.0,29.5,30.20,SSE,155,4.0,11.0,74,0.02,,---,0.02,VWS V14.00,2013-12-27 17:29:00,
2013-12-27 12:31:00,36.9,29.1,30.19,SSE,162,4.0,11.0,73,0.03,,---,0.03,VWS V14.00,2013-12-27 17:31:00,
2013-12-27 12:33:00,36.9,29.1,30.19,SSW,199,4.0,11.0,73,0.03,,---,0.03,VWS V14.00,2013-12-27 17:33:00,
2013-12-27 12:34:00,36.9,29.1,30.19,SSW,200,4.0,11.0,73,0.03,,---,0.03,VWS V14.00,2013-12-27 17:34:00,
2013-12-27 12:36:00,36.9,29.4,30.19,SSW,202,0.0,11.0,74,0.03,,---,0.03,VWS V14.00,2013-12-27 17:36:00,
2013-12-27 12:38:00,37.0,29.5,30.19,SSW,205,7.0,11.0,74,0.03,,---,0.03,VWS V14.00,2013-12-27 17:38:00,
2013-12-27 12:39:00,37.0,29.5,30.19,SSW,196,1.0,11.0,74,0.03,,---,0.03,VWS V14.00,2013-12-27 17:39:00,
2013-12-27 12:41:00,37.2,29.7,30.19,SSE,165,2.0,11.0,74,0.03,,---,0.03,VWS V14.00,2013-12-27 17:41:00,
2013-12-27 12:44:00,37.3,29.8,30.19,SSE,167,1.0,11.0,74,0.03,,---,0.03,VWS V14.00,2013-12-27 17:44:00,
2013-12-27 12:45:00,37.5,30.0,30.19,SSW,198,6.0,11.0,74,0.03,,---,0.03,VWS V14.00,2013-12-27 17:45:00,
2013-12-27 12:46:00,37.5,30.0,30.19,SSW,198,2.0,11.0,74,0.03,,---,0.03,VWS V14.00,2013-12-27 17:46:00,
2013-12-27 12:49:00,37.6,29.7,30.19,SW,220,4.0,11.0,73,0.03,,---,0.03,VWS V14.00,2013-12-27 17:49:00,
2013-12-27 12:50:00,37.8,29.9,30.19,SSW,208,7.0,11.0,73,0.03,,---,0.03,VWS V14.00,2013-12-27 17:50:00,
2013-12-27 12:51:00,37.8,29.9,30.19,SSE,162,2.0,11.0,73,0.03,,---,0.03,VWS V14.00,2013-12-27 17:51:00,
2013-12-27 12:54:00,37.6,29.4,30.19,SW,219,7.0,11.0,72,0.03,,---,0.03,VWS V14.00,2013-12-27 17:54:00,
2013-12-27 12:55:00,37.6,29.4,30.19,SW,215,8.0,11.0,72,0.03,,---,0.03,VWS V14.00,2013-12-27 17:55:00,
2013-12-27 12:57:00,37.5,29.3,30.19,SW,233,7.0,13.0,72,0.03,,---,0.03,VWS V14.00,2013-12-27 17:57:00,
2013-12-27 12:59:00,37.2,29.0,30.19,SSW,205,7.0,13.0,72,0.03,,---,0.03,VWS V14.00,2013-12-27 17:59:00,
2013-12-27 13:00:00,37.2,29.0,30.18,SSW,205,6.0,13.0,72,0.03,,---,0.03,VWS V14.00,2013-12-27 18:00:00,
2013-12-27 13:01:00,37.2,29.0,30.18,SW,219,7.0,10.0,72,0.01,,---,0.03,VWS V14.00,2013-12-27 18:01:00,
2013-12-27 13:03:00,37.3,29.5,30.18,SW,217,2.0,10.0,73,0.01,,---,0.03,VWS V14.00,2013-12-27 18:03:00,
2013-12-27 13:04:00,37.3,29.5,30.18,SW,230,6.0,11.0,73,0.01,,---,0.03,VWS V14.00,2013-12-27 18:04:00,
2013-12-27 13:05:00,37.3,29.5,30.18,SSW,198,7.0,11.0,73,0.01,,---,0.03,VWS V14.00,2013-12-27 18:05:00,
2013-12-27 13:06:00,37.3,29.5,30.18,SW,216,4.0,11.0,73,0.01,,---,0.03,VWS V14.00,2013-12-27 18:06:00,
2013-12-27 13:08:00,37.2,29.4,30.18,SSW,212,4.0,11.0,73,0.01,,---,0.03,VWS V14.00,2013-12-27 18:08:00,
2013-12-27 13:09:00,37.2,29.4,30.18,SSW,205,4.0,11.0,73,0.01,,---,0.03,VWS V14.00,2013-12-27 18:09:00,
2013-12-27 13:10:00,37.2,29.7,30.18,SW,219,7.0,11.0,74,0.01,,---,0.03,VWS V14.00,2013-12-27 18:10:00,
2013-12-27 13:11:00,37.2,29.7,30.18,SSW,203,4.0,11.0,74,0.01,,---,0.03,VWS V14.00,2013-12-27 18:11:00,
2013-12-27 13:13:00,37.2,29.7,30.18,SSW,210,7.0,11.0,74,0.01,,---,0.03,VWS V14.00,2013-12-27 18:13:00,
2013-12-27 13:14:00,37.2,29.7,30.18,SSW,199,8.0,15.0,74,0.01,,---,0.03,VWS V14.00,2013-12-27 18:14:00,
2013-12-27 13:15:00,37.2,29.7,30.18,SSW,209,9.0,16.0,74,0.01,,---,0.03,VWS V14.00,2013-12-27 18:15:00,
2013-12-27 13:16:00,37.3,29.8,30.18,SSW,208,9.0,16.0,74,0.01,,---,0.03,VWS V14.00,2013-12-27 18:16:00,
2013-12-27 13:18:00,37.3,29.5,30.18,SW,216,6.0,16.0,73,0.01,,---,0.03,VWS V14.00,2013-12-27 18:18:00,
2013-12-27 13:20:00,37.5,29.6,30.18,WSW,251,1.0,16.0,73,0.01,,---,0.03,VWS V14.00,2013-12-27 18:20:00,
2013-12-27 13:21:00,37.5,29.6,30.18,SW,223,7.0,16.0,73,0.01,,---,0.03,VWS V14.00,2013-12-27 18:21:00,
2013-12-27 13:23:00,37.6,29.7,30.18,SW,223,9.0,16.0,73,0.01,,---,0.03,VWS V14.00,2013-12-27 18:23:00,
2013-12-27 13:25:00,37.8,29.9,30.18,SW,230,13.0,16.0,73,0.01,,---,0.03,VWS V14.00,2013-12-27 18:25:00,
2013-12-27 13:26:00,37.9,30.0,30.18,SW,220,14.0,16.0,73,0.01,,---,0.03,VWS V14.00,2013-12-27 18:26:00,
2013-12-27 13:27:00,37.9,30.0,30.18,SW,234,4.0,16.0,73,0.01,,---,0.03,VWS V14.00,2013-12-27 18:27:00,
2013-12-27 13:28:00,37.9,29.7,30.18,SW,227,10.0,16.0,72,0.01,,---,0.03,VWS V14.00,2013-12-27 18:28:00,
2013-12-27 13:30:00,38.0,29.8,30.18,SW,217,8.0,16.0,72,0.01,,---,0.03,VWS V14.00,2013-12-27 18:30:00,
2013-12-27 13:32:00,37.9,29.7,30.18,SW,217,15.0,16.0,72,0.01,,---,0.03,VWS V14.00,2013-12-27 18:32:00,
2013-12-27 13:33:00,37.8,29.6,30.18,SSW,208,6.0,16.0,72,0.01,,---,0.03,VWS V14.00,2013-12-27 18:33:00,
2013-12-27 13:35:00,37.8,29.6,30.18,SSW,210,15.0,16.0,72,0.01,,---,0.03,VWS V14.00,2013-12-27 18:35:00,
2013-12-27 13:37:00,37.8,29.6,30.18,SSW,203,7.0,16.0,72,0.01,,---,0.03,VWS V14.00,2013-12-27 18:37:00,
2013-12-27 13:39:00,37.6,29.4,30.18,SSW,210,7.0,16.0,72,0.01,,---,0.03,VWS V14.00,2013-12-27 18:39:00,
2013-12-27 13:40:00,37.5,29.3,30.18,SSW,202,2.0,16.0,72,0.01,,---,0.03,VWS V14.00,2013-12-27 18:40:00,
2013-12-27 13:41:00,37.5,29.3,30.18,SW,215,10.0,16.0,72,0.01,,---,0.03,VWS V14.00,2013-12-27 18:41:00,
2013-12-27 13:42:00,37.5,29.3,30.18,SSW,212,4.0,16.0,72,0.01,,---,0.03,VWS V14.00,2013-12-27 18:42:00,
2013-12-27 13:44:00,37.6,29.7,30.18,SSW,212,7.0,16.0,73,0.01,,---,0.03,VWS V14.00,2013-12-27 18:44:00,
2013-12-27 13:45:00,37.8,29.6,30.17,SSW,212,13.0,16.0,72,0.01,,---,0.03,VWS V14.00,2013-12-27 18:45:00,
2013-12-27 13:46:00,37.8,29.6,30.17,SW,217,15.0,16.0,72,0.01,,---,0.03,VWS V14.00,2013-12-27 18:46:00,
2013-12-27 13:47:00,37.9,29.7,30.17,SSW,198,10.0,16.0,72,0.01,,---,0.03,VWS V14.00,2013-12-27 18:47:00,
2013-12-27 13:48:00,37.9,29.7,30.17,SW,216,8.0,16.0,72,0.01,,---,0.03,VWS V14.00,2013-12-27 18:48:00,
2013-12-27 13:49:00,38.0,29.8,30.17,SSW,208,7.0,16.0,72,0.01,,---,0.03,VWS V14.00,2013-12-27 18:49:00,
2013-12-27 13:50:00,38.0,29.8,30.17,SSW,213,7.0,16.0,72,0.01,,---,0.03,VWS V14.00,2013-12-27 18:50:00,
2013-12-27 13:51:00,38.2,30.0,30.17,SSW,209,10.0,16.0,72,0.01,,---,0.03,VWS V14.00,2013-12-27 18:51:00,
2013-12-27 13:52:00,38.3,30.1,30.17,SW,222,8.0,16.0,72,0.01,,---,0.03,VWS V14.00,2013-12-27 18:52:00,
2013-12-27 13:53:00,38.3,30.1,30.17,SSW,213,2.0,16.0,72,0.01,,---,0.03,VWS V14.00,2013-12-27 18:53:00,
2013-12-27 13:54:00,38.3,30.1,30.17,SSW,196,9.0,16.0,72,0.01,,---,0.03,VWS V14.00,2013-12-27 18:54:00,
2013-12-27 13:55:00,38.5,30.3,30.17,SSW,193,7.0,16.0,72,0.01,,---,0.03,VWS V14.00,2013-12-27 18:55:00,
2013-12-27 13:56:00,38.6,30.0,30.17,SW,217,11.0,16.0,71,0.01,,---,0.03,VWS V14.00,2013-12-27 18:56:00,
2013-12-27 13:57:00,38.6,30.0,30.17,SSW,199,6.0,16.0,71,0.01,,---,0.03,VWS V14.00,2013-12-27 18:57:00,
2013-12-27 13:58:00,38.6,29.7,30.17,SW,229,9.0,16.0,70,0.01,,---,0.03,VWS V14.00,2013-12-27 18:58:00,
2013-12-27 13:59:00,38.6,29.7,30.17,SW,229,9.0,16.0,70,0.01,,---,0.03,VWS V14.00,2013-12-27 18:59:00,
2013-12-27 14:00:00,38.6,29.7,30.16,WSW,243,2.0,16.0,70,0.01,,---,0.03,VWS V14.00,2013-12-27 19:00:00,
2013-12-27 14:01:00,38.5,29.6,30.16,SW,227,2.0,7.0,70,0.00,,---,0.03,VWS V14.00,2013-12-27 19:01:00,
2013-12-27 14:03:00,38.5,29.9,30.16,SSW,209,4.0,7.0,71,0.00,,---,0.03,VWS V14.00,2013-12-27 19:03:00,
2013-12-27 14:04:00,38.5,29.9,30.16,South,186,6.0,9.0,71,0.00,,---,0.03,VWS V14.00,2013-12-27 19:04:00,
2013-12-27 14:05:00,38.5,29.9,30.16,SSW,212,8.0,9.0,71,0.00,,---,0.03,VWS V14.00,2013-12-27 19:05:00,
2013-12-27 14:06:00,38.3,29.7,30.16,SW,230,6.0,9.0,71,0.00,,---,0.03,VWS V14.00,2013-12-27 19:06:00,
2013-12-27 14:08:00,38.3,29.7,30.16,SSW,209,6.0,11.0,71,0.00,,---,0.03,VWS V14.00,2013-12-27 19:08:00,
2013-12-27 14:09:00,38.3,29.7,30.16,WSW,257,9.0,11.0,71,0.00,,---,0.03,VWS V14.00,2013-12-27 19:09:00,
2013-12-27 14:10:00,38.2,29.6,30.16,SSW,213,8.0,11.0,71,0.00,,---,0.03,VWS V14.00,2013-12-27 19:10:00,
2013-12-27 14:12:00,38.0,29.5,30.16,SSW,213,7.0,11.0,71,0.00,,---,0.03,VWS V14.00,2013-12-27 19:12:00,
2013-12-27 14:13:00,38.0,29.5,30.16,WSW,243,4.0,11.0,71,0.00,,---,0.03,VWS V14.00,2013-12-27 19:13:00,
2013-12-27 14:14:00,38.0,29.8,30.16,SW,217,7.0,11.0,72,0.00,,---,0.03,VWS V14.00,2013-12-27 19:14:00,
2013-12-27 14:15:00,38.0,29.8,30.15,SW,217,4.0,11.0,72,0.00,,---,0.03,VWS V14.00,2013-12-27 19:15:00,
2013-12-27 14:16:00,38.0,29.8,30.15,SW,217,2.0,11.0,72,0.00,,---,0.03,VWS V14.00,2013-12-27 19:16:00,
2013-12-27 14:17:00,38.0,29.8,30.15,SSW,199,8.0,11.0,72,0.00,,---,0.03,VWS V14.00,2013-12-27 19:17:00,
2013-12-27 14:18:00,38.2,30.0,30.15,SW,220,4.0,15.0,72,0.00,,---,0.03,VWS V14.00,2013-12-27 19:18:00,
2013-12-27 14:19:00,38.2,30.0,30.15,SSW,212,7.0,15.0,72,0.00,,---,0.03,VWS V14.00,2013-12-27 19:19:00,
2013-12-27 14:20:00,38.2,30.0,30.15,SSW,212,11.0,15.0,72,0.00,,---,0.03,VWS V14.00,2013-12-27 19:20:00,
2013-12-27 14:21:00,38.3,30.1,30.15,SSW,192,11.0,15.0,72,0.00,,---,0.03,VWS V14.00,2013-12-27 19:21:00,
2013-12-27 14:22:00,38.5,30.3,30.15,SSW,212,9.0,15.0,72,0.00,,---,0.03,VWS V14.00,2013-12-27 19:22:00,
2013-12-27 14:23:00,38.6,30.4,30.15,SSW,209,8.0,15.0,72,0.00,,---,0.03,VWS V14.00,2013-12-27 19:23:00,
2013-12-27 14:24:00,38.8,30.6,30.15,SW,216,8.0,15.0,72,0.00,,---,0.03,VWS V14.00,2013-12-27 19:24:00,
2013-12-27 14:25:00,38.8,30.6,30.15,SSW,208,8.0,15.0,72,0.00,,---,0.03,VWS V14.00,2013-12-27 19:25:00,
2013-12-27 14:26:00,38.8,30.6,30.15,SW,216,4.0,15.0,72,0.00,,---,0.03,VWS V14.00,2013-12-27 19:26:00,
2013-12-27 14:28:00,38.6,30.0,30.15,SSW,210,11.0,15.0,71,0.00,,---,0.03,VWS V14.00,2013-12-27 19:28:00,
2013-12-27 14:29:00,38.5,29.9,30.15,SSW,202,9.0,15.0,71,0.00,,---,0.03,VWS V14.00,2013-12-27 19:29:00,
2013-12-27 14:30:00,38.5,29.9,30.14,SSW,205,4.0,15.0,71,0.00,,---,0.03,VWS V14.00,2013-12-27 19:30:00,
2013-12-27 14:31:00,38.5,29.9,30.14,SSW,205,4.0,15.0,71,0.00,,---,0.03,VWS V14.00,2013-12-27 19:31:00,
2013-12-27 14:34:00,38.3,30.1,30.14,SSW,212,4.0,15.0,72,0.00,,---,0.03,VWS V14.00,2013-12-27 19:34:00,
2013-12-27 14:35:00,38.3,30.1,30.14,SSW,210,9.0,15.0,72,0.00,,---,0.03,VWS V14.00,2013-12-27 19:35:00,
2013-12-27 14:36:00,38.3,30.1,30.14,SSW,203,9.0,15.0,72,0.00,,---,0.03,VWS V14.00,2013-12-27 19:36:00,
2013-12-27 14:39:00,38.3,30.1,30.14,SSW,205,6.0,15.0,72,0.00,,---,0.03,VWS V14.00,2013-12-27 19:39:00,
2013-12-27 14:40:00,38.3,30.1,30.14,SSE,151,11.0,15.0,72,0.00,,---,0.03,VWS V14.00,2013-12-27 19:40:00,
2013-12-27 14:41:00,38.3,30.1,30.14,South,189,7.0,15.0,72,0.00,,---,0.03,VWS V14.00,2013-12-27 19:41:00,
2013-12-27 14:45:00,38.5,29.9,30.14,SSW,195,13.0,15.0,71,0.00,,---,0.03,VWS V14.00,2013-12-27 19:45:00,
2013-12-27 14:46:00,38.5,29.9,30.14,SW,215,6.0,15.0,71,0.00,,---,0.03,VWS V14.00,2013-12-27 19:46:00,
2013-12-27 14:50:00,38.2,29.6,30.14,SW,216,8.0,15.0,71,0.00,,---,0.03,VWS V14.00,2013-12-27 19:50:00,
2013-12-27 14:51:00,38.2,29.6,30.14,SSW,213,11.0,15.0,71,0.00,,---,0.03,VWS V14.00,2013-12-27 19:51:00,
2013-12-27 14:55:00,38.3,30.1,30.14,SSW,202,9.0,15.0,72,0.00,,---,0.03,VWS V14.00,2013-12-27 19:55:00,
2013-12-27 14:56:00,38.5,30.3,30.14,South,178,4.0,15.0,72,0.00,,---,0.03,VWS V14.00,2013-12-27 19:56:00,
2013-12-27 15:00:00,38.9,30.3,30.14,SSW,210,6.0,15.0,71,0.00,,---,0.03,VWS V14.00,2013-12-27 20:00:00,
2013-12-27 15:01:00,39.1,30.5,30.14,SSW,212,4.0,4.0,71,0.00,,---,0.03,VWS V14.00,2013-12-27 20:01:00,
2013-12-27 15:05:00,39.5,30.5,30.14,SW,217,4.0,14.0,70,0.00,,---,0.03,VWS V14.00,2013-12-27 20:05:00,
2013-12-27 15:06:00,39.5,30.5,30.14,SW,224,8.0,14.0,70,0.00,,---,0.03,VWS V14.00,2013-12-27 20:06:00,
2013-12-27 15:10:00,39.8,30.5,30.14,SSW,193,8.0,14.0,69,0.00,,---,0.03,VWS V14.00,2013-12-27 20:10:00,
2013-12-27 15:11:00,39.9,30.6,30.14,SW,220,6.0,14.0,69,0.00,,---,0.03,VWS V14.00,2013-12-27 20:11:00,
2013-12-27 15:15:00,39.9,30.6,30.13,SW,223,14.0,15.0,69,0.00,,---,0.03,VWS V14.00,2013-12-27 20:15:00,
2013-12-27 15:16:00,39.9,30.6,30.13,SW,216,8.0,15.0,69,0.00,,---,0.03,VWS V14.00,2013-12-27 20:16:00,
2013-12-27 15:17:00,39.9,30.6,30.13,SSW,213,6.0,15.0,69,0.00,,---,0.03,VWS V14.00,2013-12-27 20:17:00,
2013-12-27 15:21:00,40.1,30.8,30.13,SSW,193,8.0,15.0,69,0.00,,---,0.03,VWS V14.00,2013-12-27 20:21:00,
2013-12-27 15:23:00,39.9,30.2,30.13,SW,222,7.0,15.0,68,0.00,,---,0.03,VWS V14.00,2013-12-27 20:23:00,
2013-12-27 15:26:00,39.8,30.1,30.13,SW,217,6.0,15.0,68,0.00,,---,0.03,VWS V14.00,2013-12-27 20:26:00,
2013-12-27 15:27:00,39.8,30.1,30.13,SW,217,6.0,15.0,68,0.00,,---,0.03,VWS V14.00,2013-12-27 20:27:00,
2013-12-27 15:28:00,39.9,30.6,30.13,SSW,210,9.0,15.0,69,0.00,,---,0.03,VWS V14.00,2013-12-27 20:28:00,
2013-12-27 15:31:00,39.9,30.2,30.12,SW,219,9.0,15.0,68,0.00,,---,0.03,VWS V14.00,2013-12-27 20:31:00,
2013-12-27 15:32:00,39.9,30.2,30.12,SSW,209,9.0,15.0,68,0.00,,---,0.03,VWS V14.00,2013-12-27 20:32:00,
2013-12-27 15:33:00,39.9,30.2,30.12,SSW,203,7.0,15.0,68,0.00,,---,0.03,VWS V14.00,2013-12-27 20:33:00,
2013-12-27 15:36:00,39.8,30.5,30.12,SW,223,9.0,15.0,69,0.00,,---,0.03,VWS V14.00,2013-12-27 20:36:00,
2013-12-27 15:37:00,39.8,30.5,30.12,SSW,209,14.0,15.0,69,0.00,,---,0.03,VWS V14.00,2013-12-27 20:37:00,
2013-12-27 15:38:00,39.8,30.5,30.12,SW,216,10.0,15.0,69,0.00,,---,0.03,VWS V14.00,2013-12-27 20:38:00,
2013-12-27 15:41:00,39.8,30.5,30.12,WSW,237,9.0,15.0,69,0.00,,---,0.03,VWS V14.00,2013-12-27 20:41:00,
2013-12-27 15:42:00,39.8,30.5,30.12,SSW,205,9.0,15.0,69,0.00,,---,0.03,VWS V14.00,2013-12-27 20:42:00,
2013-12-27 15:43:00,39.8,30.5,30.12,SSW,206,7.0,15.0,69,0.00,,---,0.03,VWS V14.00,2013-12-27 20:43:00,
2013-12-27 15:46:00,39.5,30.2,30.13,SW,222,11.0,17.0,69,0.00,,---,0.03,VWS V14.00,2013-12-27 20:46:00,
2013-12-27 15:47:00,39.5,30.2,30.13,SW,226,8.0,17.0,69,0.00,,---,0.03,VWS V14.00,2013-12-27 20:47:00,
2013-12-27 15:48:00,39.2,29.9,30.13,SSW,200,6.0,17.0,69,0.00,,---,0.03,VWS V14.00,2013-12-27 20:48:00,
2013-12-27 15:51:00,39.1,29.8,30.13,SSW,200,6.0,17.0,69,0.00,,---,0.03,VWS V14.00,2013-12-27 20:51:00,
2013-12-27 15:52:00,39.1,29.8,30.13,SW,223,8.0,17.0,69,0.00,,---,0.03,VWS V14.00,2013-12-27 20:52:00,
2013-12-27 15:54:00,38.9,30.0,30.13,SSW,213,14.0,17.0,70,0.00,,---,0.03,VWS V14.00,2013-12-27 20:54:00,
2013-12-27 15:56:00,38.6,29.7,30.13,SW,223,9.0,17.0,70,0.00,,---,0.03,VWS V14.00,2013-12-27 20:56:00,
2013-12-27 15:57:00,38.6,29.7,30.13,SSW,210,13.0,17.0,70,0.00,,---,0.03,VWS V14.00,2013-12-27 20:57:00,
2013-12-27 15:59:00,38.5,29.6,30.13,SW,215,11.0,17.0,70,0.00,,---,0.03,VWS V14.00,2013-12-27 20:59:00,
2013-12-27 16:02:00,38.3,29.7,30.13,SW,217,4.0,9.0,71,0.00,,---,0.03,VWS V14.00,2013-12-27 21:02:00,
2013-12-27 16:03:00,38.3,29.7,30.13,SW,217,2.0,9.0,71,0.00,,---,0.03,VWS V14.00,2013-12-27 21:03:00,
2013-12-27 16:04:00,38.2,29.6,30.13,SSW,205,4.0,9.0,71,0.00,,---,0.03,VWS V14.00,2013-12-27 21:04:00,
2013-12-27 16:05:00,38.2,29.6,30.13,SSW,206,2.0,9.0,71,0.00,,---,0.03,VWS V14.00,2013-12-27 21:05:00,
2013-12-27 16:07:00,38.2,30.0,30.13,SSW,209,4.0,9.0,72,0.00,,---,0.03,VWS V14.00,2013-12-27 21:07:00,
2013-12-27 16:08:00,38.0,29.8,30.13,SSW,210,6.0,9.0,72,0.00,,---,0.03,VWS V14.00,2013-12-27 21:08:00,
2013-12-27 16:09:00,38.0,29.8,30.13,South,188,6.0,9.0,72,0.00,,---,0.03,VWS V14.00,2013-12-27 21:09:00,
2013-12-27 16:10:00,38.0,29.8,30.13,South,189,2.0,9.0,72,0.00,,---,0.03,VWS V14.00,2013-12-27 21:10:00,
2013-12-27 16:12:00,38.0,29.8,30.13,SSW,213,9.0,11.0,72,0.00,,---,0.03,VWS V14.00,2013-12-27 21:12:00,
2013-12-27 16:13:00,37.9,29.7,30.13,SSW,198,7.0,11.0,72,0.00,,---,0.03,VWS V14.00,2013-12-27 21:13:00,
2013-12-27 16:14:00,37.9,29.7,30.13,SSW,208,6.0,11.0,72,0.00,,---,0.03,VWS V14.00,2013-12-27 21:14:00,
2013-12-27 16:15:00,37.9,29.7,30.13,SSW,192,6.0,11.0,72,0.00,,---,0.03,VWS V14.00,2013-12-27 21:15:00,
2013-12-27 16:17:00,37.8,29.6,30.13,SSW,203,4.0,11.0,72,0.00,,---,0.03,VWS V14.00,2013-12-27 21:17:00,
2013-12-27 16:18:00,37.8,29.9,30.13,SSW,208,6.0,11.0,73,0.00,,---,0.03,VWS V14.00,2013-12-27 21:18:00,
2013-12-27 16:20:00,37.8,29.9,30.13,SSW,208,2.0,11.0,73,0.00,,---,0.03,VWS V14.00,2013-12-27 21:20:00,
2013-12-27 16:21:00,37.8,29.9,30.13,SSW,208,6.0,11.0,73,0.00,,---,0.03,VWS V14.00,2013-12-27 21:21:00,
2013-12-27 16:22:00,37.8,29.9,30.13,SSW,199,9.0,11.0,73,0.00,,---,0.03,VWS V14.00,2013-12-27 21:22:00,
2013-12-27 16:23:00,37.8,29.9,30.13,SSW,200,4.0,11.0,73,0.00,,---,0.03,VWS V14.00,2013-12-27 21:23:00,
2013-12-27 16:24:00,37.8,29.9,30.13,SSW,210,7.0,11.0,73,0.00,,---,0.03,VWS V14.00,2013-12-27 21:24:00,
2013-12-27 16:25:00,37.6,29.7,30.13,SSW,209,6.0,11.0,73,0.00,,---,0.03,VWS V14.00,2013-12-27 21:25:00,
2013-12-27 16:26:00,37.6,29.7,30.13,SSW,209,4.0,11.0,73,0.00,,---,0.03,VWS V14.00,2013-12-27 21:26:00,
2013-12-27 16:28:00,37.6,29.7,30.13,SSW,209,4.0,11.0,73,0.00,,---,0.03,VWS V14.00,2013-12-27 21:28:00,
2013-12-27 16:29:00,37.6,30.1,30.13,SSW,203,6.0,11.0,74,0.00,,---,0.03,VWS V14.00,2013-12-27 21:29:00,
2013-12-27 16:31:00,37.6,30.1,30.13,SSW,195,8.0,11.0,74,0.00,,---,0.03,VWS V14.00,2013-12-27 21:31:00,
2013-12-27 16:32:00,37.6,30.1,30.13,SSW,199,6.0,11.0,74,0.00,,---,0.03,VWS V14.00,2013-12-27 21:32:00,
2013-12-27 16:33:00,37.5,30.0,30.13,SSW,206,4.0,11.0,74,0.00,,---,0.03,VWS V14.00,2013-12-27 21:33:00,
2013-12-27 16:34:00,37.5,30.0,30.13,SW,222,8.0,11.0,74,0.00,,---,0.03,VWS V14.00,2013-12-27 21:34:00,
2013-12-27 16:36:00,37.5,30.0,30.13,SSW,205,8.0,11.0,74,0.00,,---,0.03,VWS V14.00,2013-12-27 21:36:00,
2013-12-27 16:37:00,37.5,30.0,30.13,SSW,208,6.0,11.0,74,0.00,,---,0.03,VWS V14.00,2013-12-27 21:37:00,
2013-12-27 16:38:00,37.5,30.0,30.13,SSW,198,7.0,11.0,74,0.00,,---,0.03,VWS V14.00,2013-12-27 21:38:00,
2013-12-27 16:39:00,37.5,30.0,30.13,SW,220,11.0,13.0,74,0.00,,---,0.03,VWS V14.00,2013-12-27 21:39:00,
2013-12-27 16:41:00,37.3,29.8,30.13,SW,222,6.0,14.0,74,0.00,,---,0.03,VWS V14.00,2013-12-27 21:41:00,
2013-12-27 16:43:00,37.3,29.8,30.13,SSW,203,6.0,14.0,74,0.00,,---,0.03,VWS V14.00,2013-12-27 21:43:00,
2013-12-27 16:44:00,37.3,30.1,30.13,SSW,203,2.0,14.0,75,0.00,,---,0.03,VWS V14.00,2013-12-27 21:44:00,
2013-12-27 16:46:00,37.3,30.1,30.13,SSW,193,8.0,14.0,75,0.00,,---,0.03,VWS V14.00,2013-12-27 21:46:00,
2013-12-27 16:48:00,37.3,30.1,30.13,SSW,193,2.0,14.0,75,0.00,,---,0.03,VWS V14.00,2013-12-27 21:48:00,
2013-12-27 16:49:00,37.3,30.1,30.13,SSW,193,4.0,14.0,75,0.00,,---,0.03,VWS V14.00,2013-12-27 21:49:00,
2013-12-27 16:52:00,37.3,30.1,30.13,SSW,192,1.0,14.0,75,0.00,,---,0.03,VWS V14.00,2013-12-27 21:52:00,
2013-12-27 16:53:00,37.3,30.1,30.13,SSW,192,2.0,14.0,75,0.00,,---,0.03,VWS V14.00,2013-12-27 21:53:00,
2013-12-27 16:54:00,37.3,30.1,30.13,SSW,192,1.0,14.0,75,0.00,,---,0.03,VWS V14.00,2013-12-27 21:54:00,
2013-12-27 16:55:00,37.3,30.1,30.13,SSW,192,4.0,14.0,75,0.00,,---,0.03,VWS V14.00,2013-12-27 21:55:00,
2013-12-27 16:57:00,37.2,30.0,30.13,South,191,1.0,14.0,75,0.00,,---,0.03,VWS V14.00,2013-12-27 21:57:00,
2013-12-27 16:58:00,37.2,30.0,30.13,South,191,2.0,14.0,75,0.00,,---,0.03,VWS V14.00,2013-12-27 21:58:00,
2013-12-27 16:59:00,37.2,30.0,30.13,South,191,4.0,14.0,75,0.00,,---,0.03,VWS V14.00,2013-12-27 21:59:00,
2013-12-27 17:00:00,37.2,30.0,30.13,SSW,193,4.0,14.0,75,0.00,,---,0.03,VWS V14.00,2013-12-27 22:00:00,
2013-12-27 17:02:00,37.0,29.8,30.13,SSW,193,4.0,4.0,75,0.00,,---,0.03,VWS V14.00,2013-12-27 22:02:00,
2013-12-27 17:03:00,37.0,29.8,30.13,SSW,193,2.0,6.0,75,0.00,,---,0.03,VWS V14.00,2013-12-27 22:03:00,
2013-12-27 17:04:00,37.0,29.8,30.13,SSW,193,2.0,6.0,75,0.00,,---,0.03,VWS V14.00,2013-12-27 22:04:00,
2013-12-27 17:05:00,37.0,29.8,30.13,SSW,193,4.0,6.0,75,0.00,,---,0.03,VWS V14.00,2013-12-27 22:05:00,
2013-12-27 17:07:00,36.9,29.7,30.13,SSW,193,2.0,6.0,75,0.00,,---,0.03,VWS V14.00,2013-12-27 22:07:00,
2013-12-27 17:08:00,36.9,29.7,30.13,SSW,195,2.0,6.0,75,0.00,,---,0.03,VWS V14.00,2013-12-27 22:08:00,
2013-12-27 17:09:00,36.9,29.7,30.13,SSW,195,2.0,7.0,75,0.00,,---,0.03,VWS V14.00,2013-12-27 22:09:00,
2013-12-27 17:10:00,36.8,29.6,30.13,South,185,2.0,7.0,75,0.00,,---,0.03,VWS V14.00,2013-12-27 22:10:00,
2013-12-27 17:12:00,36.8,30.0,30.13,South,186,4.0,7.0,76,0.00,,---,0.03,VWS V14.00,2013-12-27 22:12:00,
2013-12-27 17:13:00,36.8,30.0,30.13,South,186,1.0,7.0,76,0.00,,---,0.03,VWS V14.00,2013-12-27 22:13:00,
2013-12-27 17:14:00,36.8,30.0,30.13,South,186,2.0,7.0,76,0.00,,---,0.03,VWS V14.00,2013-12-27 22:14:00,
2013-12-27 17:15:00,36.6,29.8,30.13,South,186,6.0,7.0,76,0.00,,---,0.03,VWS V14.00,2013-12-27 22:15:00,
2013-12-27 17:18:00,36.6,29.8,30.13,South,186,1.0,7.0,76,0.00,,---,0.03,VWS V14.00,2013-12-27 22:18:00,
2013-12-27 17:19:00,36.6,30.1,30.13,South,186,6.0,7.0,77,0.00,,---,0.03,VWS V14.00,2013-12-27 22:19:00,
2013-12-27 17:20:00,36.5,30.0,30.13,SSW,193,1.0,7.0,77,0.00,,---,0.03,VWS V14.00,2013-12-27 22:20:00,
2013-12-27 17:23:00,36.5,30.0,30.13,SSW,193,0.0,7.0,77,0.00,,---,0.03,VWS V14.00,2013-12-27 22:23:00,
2013-12-27 17:24:00,36.5,30.0,30.13,SSW,193,4.0,7.0,77,0.00,,---,0.03,VWS V14.00,2013-12-27 22:24:00,
2013-12-27 17:25:00,36.3,29.8,30.13,SSW,193,2.0,7.0,77,0.00,,---,0.03,VWS V14.00,2013-12-27 22:25:00,
2013-12-27 17:28:00,36.3,29.8,30.13,South,188,2.0,7.0,77,0.00,,---,0.03,VWS V14.00,2013-12-27 22:28:00,
2013-12-27 17:29:00,36.3,29.8,30.13,South,188,1.0,7.0,77,0.00,,---,0.03,VWS V14.00,2013-12-27 22:29:00,
2013-12-27 17:30:00,36.3,29.8,30.13,South,191,6.0,7.0,77,0.00,,---,0.03,VWS V14.00,2013-12-27 22:30:00,
2013-12-27 17:33:00,36.2,30.0,30.12,South,191,2.0,7.0,78,0.00,,---,0.03,VWS V14.00,2013-12-27 22:33:00,
2013-12-27 17:34:00,36.2,30.0,30.12,South,191,2.0,7.0,78,0.00,,---,0.03,VWS V14.00,2013-12-27 22:34:00,
2013-12-27 17:35:00,36.2,30.0,30.12,South,191,2.0,7.0,78,0.00,,---,0.03,VWS V14.00,2013-12-27 22:35:00,
2013-12-27 17:36:00,36.0,29.8,30.12,SSW,192,4.0,7.0,78,0.00,,---,0.03,VWS V14.00,2013-12-27 22:36:00,
2013-12-27 17:38:00,36.0,29.8,30.12,SSW,192,2.0,7.0,78,0.00,,---,0.03,VWS V14.00,2013-12-27 22:38:00,
2013-12-27 17:39:00,36.0,29.8,30.12,SSW,192,1.0,7.0,78,0.00,,---,0.03,VWS V14.00,2013-12-27 22:39:00,
2013-12-27 17:40:00,35.9,29.7,30.12,SSW,192,4.0,7.0,78,0.00,,---,0.03,VWS V14.00,2013-12-27 22:40:00,
2013-12-27 17:42:00,35.9,29.7,30.12,SSW,206,4.0,8.0,78,0.00,,---,0.03,VWS V14.00,2013-12-27 22:42:00,
2013-12-27 17:44:00,35.9,29.7,30.12,SSW,203,4.0,8.0,78,0.00,,---,0.03,VWS V14.00,2013-12-27 22:44:00,
2013-12-27 17:45:00,35.9,30.0,30.12,SSW,193,6.0,8.0,79,0.00,,---,0.03,VWS V14.00,2013-12-27 22:45:00,
2013-12-27 17:46:00,35.8,29.9,30.12,SSW,203,4.0,8.0,79,0.00,,---,0.03,VWS V14.00,2013-12-27 22:46:00,
2013-12-27 17:47:00,35.8,29.9,30.12,SSW,203,4.0,8.0,79,0.00,,---,0.03,VWS V14.00,2013-12-27 22:47:00,
2013-12-27 17:49:00,35.8,29.9,30.12,SSW,203,6.0,8.0,79,0.00,,---,0.03,VWS V14.00,2013-12-27 22:49:00,
2013-12-27 17:50:00,35.8,29.9,30.12,SSW,203,4.0,8.0,79,0.00,,---,0.03,VWS V14.00,2013-12-27 22:50:00,
2013-12-27 17:51:00,35.6,29.7,30.12,SSW,203,2.0,8.0,79,0.00,,---,0.03,VWS V14.00,2013-12-27 22:51:00,
2013-12-27 17:53:00,35.6,29.7,30.12,SSW,203,1.0,8.0,79,0.00,,---,0.03,VWS V14.00,2013-12-27 22:53:00,
2013-12-27 17:54:00,35.6,29.7,30.12,SSW,203,4.0,8.0,79,0.00,,---,0.03,VWS V14.00,2013-12-27 22:54:00,
2013-12-27 17:55:00,35.6,29.7,30.12,SSW,205,6.0,8.0,79,0.00,,---,0.03,VWS V14.00,2013-12-27 22:55:00,
2013-12-27 17:56:00,35.5,29.6,30.12,SSW,203,1.0,8.0,79,0.00,,---,0.03,VWS V14.00,2013-12-27 22:56:00,
2013-12-27 17:58:00,35.5,29.6,30.12,SSW,203,2.0,8.0,79,0.00,,---,0.03,VWS V14.00,2013-12-27 22:58:00,
2013-12-27 17:59:00,35.5,29.6,30.12,SSW,203,4.0,8.0,79,0.00,,---,0.03,VWS V14.00,2013-12-27 22:59:00,
2013-12-27 18:00:00,35.5,29.6,30.12,SSW,203,4.0,8.0,79,0.00,,---,0.03,VWS V14.00,2013-12-27 23:00:00,
2013-12-27 18:01:00,35.5,29.6,30.12,SSW,203,2.0,4.0,79,0.00,,---,0.03,VWS V14.00,2013-12-27 23:01:00,
2013-12-27 18:02:00,35.3,29.5,30.12,SSW,203,2.0,4.0,79,0.00,,---,0.03,VWS V14.00,2013-12-27 23:02:00,
2013-12-27 18:03:00,35.3,29.5,30.12,SSW,203,4.0,7.0,79,0.00,,---,0.03,VWS V14.00,2013-12-27 23:03:00,
2013-12-27 18:04:00,35.3,29.5,30.12,SSW,203,6.0,7.0,79,0.00,,---,0.03,VWS V14.00,2013-12-27 23:04:00,
2013-12-27 18:05:00,35.3,29.5,30.12,SSW,203,6.0,7.0,79,0.00,,---,0.03,VWS V14.00,2013-12-27 23:05:00,
2013-12-27 18:06:00,35.3,29.5,30.12,SSW,203,2.0,7.0,79,0.00,,---,0.03,VWS V14.00,2013-12-27 23:06:00,
2013-12-27 18:07:00,35.2,29.7,30.12,SSW,208,4.0,7.0,80,0.00,,---,0.03,VWS V14.00,2013-12-27 23:07:00,
2013-12-27 18:08:00,35.2,29.7,30.12,SSW,208,6.0,7.0,80,0.00,,---,0.03,VWS V14.00,2013-12-27 23:08:00,
2013-12-27 18:09:00,35.2,29.7,30.12,SSW,209,4.0,7.0,80,0.00,,---,0.03,VWS V14.00,2013-12-27 23:09:00,
2013-12-27 18:10:00,35.2,29.7,30.12,SSW,209,2.0,7.0,80,0.00,,---,0.03,VWS V14.00,2013-12-27 23:10:00,
2013-12-27 18:11:00,35.2,29.7,30.12,SSW,208,6.0,7.0,80,0.00,,---,0.03,VWS V14.00,2013-12-27 23:11:00,
2013-12-27 18:12:00,35.0,29.5,30.12,SSW,208,4.0,7.0,80,0.00,,---,0.03,VWS V14.00,2013-12-27 23:12:00,
2013-12-27 18:13:00,35.0,29.5,30.12,SSW,208,6.0,8.0,80,0.00,,---,0.03,VWS V14.00,2013-12-27 23:13:00,
2013-12-27 18:14:00,35.0,29.5,30.12,SSW,198,6.0,8.0,80,0.00,,---,0.03,VWS V14.00,2013-12-27 23:14:00,
2013-12-27 18:15:00,35.0,29.5,30.11,SSW,198,6.0,8.0,80,0.00,,---,0.03,VWS V14.00,2013-12-27 23:15:00,
2013-12-27 18:16:00,35.0,29.5,30.11,SSW,198,2.0,8.0,80,0.00,,---,0.03,VWS V14.00,2013-12-27 23:16:00,
2013-12-27 18:18:00,34.9,29.4,30.11,SSW,205,2.0,8.0,80,0.00,,---,0.03,VWS V14.00,2013-12-27 23:18:00,
2013-12-27 18:19:00,34.9,29.4,30.11,SSW,205,6.0,8.0,80,0.00,,---,0.03,VWS V14.00,2013-12-27 23:19:00,
2013-12-27 18:20:00,34.9,29.4,30.11,SSW,205,6.0,8.0,80,0.00,,---,0.03,VWS V14.00,2013-12-27 23:20:00,
2013-12-27 18:21:00,34.9,29.4,30.11,SSW,203,6.0,8.0,80,0.00,,---,0.03,VWS V14.00,2013-12-27 23:21:00,
2013-12-27 18:23:00,34.9,29.4,30.11,SSW,196,7.0,8.0,80,0.00,,---,0.03,VWS V14.00,2013-12-27 23:23:00,
2013-12-27 18:24:00,34.9,29.4,30.11,SSW,196,7.0,8.0,80,0.00,,---,0.03,VWS V14.00,2013-12-27 23:24:00,
2013-12-27 18:25:00,34.9,29.4,30.11,SSW,196,6.0,8.0,80,0.00,,---,0.03,VWS V14.00,2013-12-27 23:25:00,
2013-12-27 18:26:00,34.9,29.7,30.11,SSW,198,7.0,8.0,81,0.00,,---,0.03,VWS V14.00,2013-12-27 23:26:00,
2013-12-27 18:28:00,34.7,29.5,30.11,SSW,202,6.0,8.0,81,0.00,,---,0.03,VWS V14.00,2013-12-27 23:28:00,
2013-12-27 18:29:00,34.7,29.5,30.11,SSW,202,4.0,8.0,81,0.00,,---,0.03,VWS V14.00,2013-12-27 23:29:00,
2013-12-27 18:30:00,34.7,29.5,30.11,SSW,200,1.0,8.0,81,0.00,,---,0.03,VWS V14.00,2013-12-27 23:30:00,
2013-12-27 18:31:00,34.7,29.5,30.11,SSW,202,2.0,8.0,81,0.00,,---,0.03,VWS V14.00,2013-12-27 23:31:00,
2013-12-27 18:32:00,34.7,29.5,30.11,SSW,202,2.0,8.0,81,0.00,,---,0.03,VWS V14.00,2013-12-27 23:32:00,
2013-12-27 18:34:00,34.7,29.5,30.11,SSW,202,4.0,8.0,81,0.00,,---,0.03,VWS V14.00,2013-12-27 23:34:00,
2013-12-27 18:35:00,34.7,29.5,30.11,SSW,202,1.0,8.0,81,0.00,,---,0.03,VWS V14.00,2013-12-27 23:35:00,
2013-12-27 18:37:00,34.6,29.4,30.11,SSW,202,6.0,8.0,81,0.00,,---,0.03,VWS V14.00,2013-12-27 23:37:00,
2013-12-27 18:39:00,34.6,29.4,30.11,SSW,203,6.0,8.0,81,0.00,,---,0.03,VWS V14.00,2013-12-27 23:39:00,
2013-12-27 18:40:00,34.6,29.4,30.11,SSW,203,4.0,8.0,81,0.00,,---,0.03,VWS V14.00,2013-12-27 23:40:00,
2013-12-27 18:42:00,34.6,29.4,30.11,SSW,203,6.0,8.0,81,0.00,,---,0.03,VWS V14.00,2013-12-27 23:42:00,
2013-12-27 18:44:00,34.6,29.7,30.11,SSW,205,4.0,8.0,82,0.00,,---,0.03,VWS V14.00,2013-12-27 23:44:00,
2013-12-27 18:45:00,34.6,29.4,30.10,SSW,203,2.0,8.0,81,0.00,,---,0.03,VWS V14.00,2013-12-27 23:45:00,
2013-12-27 18:47:00,34.6,29.7,30.10,SSW,200,7.0,8.0,82,0.00,,---,0.03,VWS V14.00,2013-12-27 23:47:00,
2013-12-27 18:49:00,34.6,29.7,30.10,SSW,209,2.0,9.0,82,0.00,,---,0.03,VWS V14.00,2013-12-27 23:49:00,
2013-12-27 18:50:00,34.6,29.7,30.10,SSW,209,4.0,9.0,82,0.00,,---,0.03,VWS V14.00,2013-12-27 23:50:00,
2013-12-27 18:52:00,34.6,29.7,30.10,SSW,210,4.0,9.0,82,0.00,,---,0.03,VWS V14.00,2013-12-27 23:52:00,
2013-12-27 18:54:00,34.6,29.7,30.10,SSW,210,4.0,9.0,82,0.00,,---,0.03,VWS V14.00,2013-12-27 23:54:00,
2013-12-27 18:55:00,34.6,29.7,30.10,SSW,210,1.0,9.0,82,0.00,,---,0.03,VWS V14.00,2013-12-27 23:55:00,
2013-12-27 18:56:00,34.6,29.7,30.10,SSW,210,6.0,9.0,82,0.00,,---,0.03,VWS V14.00,2013-12-27 23:56:00,
2013-12-27 18:57:00,34.6,29.7,30.10,SSW,210,2.0,9.0,82,0.00,,---,0.03,VWS V14.00,2013-12-27 23:57:00,
2013-12-27 18:59:00,34.4,29.5,30.10,SSW,209,6.0,9.0,82,0.00,,---,0.03,VWS V14.00,2013-12-27 23:59:00,
2013-12-27 19:00:00,34.4,29.5,30.11,SSW,209,4.0,9.0,82,0.00,,---,0.03,VWS V14.00,2013-12-28 00:00:00,
2013-12-27 19:02:00,34.4,29.5,30.11,SSW,209,4.0,7.0,82,0.00,,---,0.03,VWS V14.00,2013-12-28 00:02:00,
2013-12-27 19:05:00,34.4,29.5,30.11,SSW,209,1.0,7.0,82,0.00,,---,0.03,VWS V14.00,2013-12-28 00:05:00,
2013-12-27 19:06:00,34.4,29.5,30.11,SSW,209,1.0,7.0,82,0.00,,---,0.03,VWS V14.00,2013-12-28 00:06:00,
2013-12-27 19:07:00,34.4,29.5,30.11,SSW,209,1.0,7.0,82,0.00,,---,0.03,VWS V14.00,2013-12-28 00:07:00,
2013-12-27 19:10:00,34.3,29.4,30.11,SSW,209,6.0,7.0,82,0.00,,---,0.03,VWS V14.00,2013-12-28 00:10:00,
2013-12-27 19:11:00,34.3,29.4,30.11,SSW,209,1.0,7.0,82,0.00,,---,0.03,VWS V14.00,2013-12-28 00:11:00,
2013-12-27 19:12:00,34.3,29.4,30.11,SSW,210,7.0,7.0,82,0.00,,---,0.03,VWS V14.00,2013-12-28 00:12:00,
2013-12-27 19:13:00,34.3,29.4,30.11,SSW,206,6.0,7.0,82,0.00,,---,0.03,VWS V14.00,2013-12-28 00:13:00,
2013-12-27 19:15:00,34.3,29.4,30.10,SSW,208,6.0,8.0,82,0.00,,---,0.03,VWS V14.00,2013-12-28 00:15:00,
2013-12-27 19:16:00,34.3,29.4,30.10,SSW,208,7.0,8.0,82,0.00,,---,0.03,VWS V14.00,2013-12-28 00:16:00,
2013-12-27 19:17:00,34.3,29.4,30.10,SSW,208,1.0,8.0,82,0.00,,---,0.03,VWS V14.00,2013-12-28 00:17:00,
2013-12-27 19:18:00,34.3,29.4,30.10,South,174,2.0,8.0,82,0.00,,---,0.03,VWS V14.00,2013-12-28 00:18:00,
2013-12-27 19:20:00,34.3,29.4,30.10,South,182,4.0,8.0,82,0.00,,---,0.03,VWS V14.00,2013-12-28 00:20:00,
2013-12-27 19:21:00,34.1,29.2,30.10,SSW,199,4.0,8.0,82,0.00,,---,0.03,VWS V14.00,2013-12-28 00:21:00,
2013-12-27 19:22:00,34.1,29.2,30.10,SSW,209,6.0,8.0,82,0.00,,---,0.03,VWS V14.00,2013-12-28 00:22:00,
2013-12-27 19:23:00,34.1,29.2,30.10,SSW,208,4.0,8.0,82,0.00,,---,0.03,VWS V14.00,2013-12-28 00:23:00,
2013-12-27 19:26:00,34.1,29.5,30.10,SSW,208,4.0,8.0,83,0.00,,---,0.03,VWS V14.00,2013-12-28 00:26:00,
2013-12-27 19:27:00,34.1,29.5,30.10,SSW,208,7.0,8.0,83,0.00,,---,0.03,VWS V14.00,2013-12-28 00:27:00,
2013-12-27 19:28:00,34.1,29.5,30.10,SSW,208,2.0,8.0,83,0.00,,---,0.03,VWS V14.00,2013-12-28 00:28:00,
2013-12-27 19:31:00,34.0,29.4,30.10,SSW,208,2.0,8.0,83,0.00,,---,0.03,VWS V14.00,2013-12-28 00:31:00,
2013-12-27 19:32:00,34.0,29.4,30.10,SSW,208,6.0,8.0,83,0.00,,---,0.03,VWS V14.00,2013-12-28 00:32:00,
2013-12-27 19:33:00,34.0,29.4,30.10,SSW,208,4.0,8.0,83,0.00,,---,0.03,VWS V14.00,2013-12-28 00:33:00,
2013-12-27 19:36:00,34.0,29.4,30.10,SSW,205,7.0,8.0,83,0.00,,---,0.03,VWS V14.00,2013-12-28 00:36:00,
2013-12-27 19:37:00,34.0,29.4,30.10,SSW,205,4.0,8.0,83,0.00,,---,0.03,VWS V14.00,2013-12-28 00:37:00,
2013-12-27 19:38:00,34.0,29.4,30.10,SSW,205,2.0,8.0,83,0.00,,---,0.03,VWS V14.00,2013-12-28 00:38:00,
2013-12-27 19:39:00,34.0,29.4,30.10,SSW,206,4.0,8.0,83,0.00,,---,0.03,VWS V14.00,2013-12-28 00:39:00,
2013-12-27 19:41:00,34.0,29.4,30.10,SSW,206,2.0,8.0,83,0.00,,---,0.03,VWS V14.00,2013-12-28 00:41:00,
2013-12-27 19:43:00,33.8,29.2,30.10,SSW,205,4.0,8.0,83,0.00,,---,0.03,VWS V14.00,2013-12-28 00:43:00,
2013-12-27 19:44:00,33.8,29.2,30.10,SSW,206,7.0,8.0,83,0.00,,---,0.03,VWS V14.00,2013-12-28 00:44:00,
2013-12-27 19:46:00,33.8,29.2,30.09,SSW,205,4.0,8.0,83,0.00,,---,0.03,VWS V14.00,2013-12-28 00:46:00,
2013-12-27 19:48:00,33.8,29.2,30.09,SSW,206,2.0,8.0,83,0.00,,---,0.03,VWS V14.00,2013-12-28 00:48:00,
2013-12-27 19:49:00,33.8,29.2,30.09,SSW,206,4.0,8.0,83,0.00,,---,0.03,VWS V14.00,2013-12-28 00:49:00,
2013-12-27 19:51:00,33.7,29.1,30.09,SSW,206,6.0,8.0,83,0.00,,---,0.03,VWS V14.00,2013-12-28 00:51:00,
2013-12-27 19:52:00,33.7,29.1,30.09,SSW,206,0.0,8.0,83,0.00,,---,0.03,VWS V14.00,2013-12-28 00:52:00,
2013-12-27 19:53:00,33.7,29.1,30.09,SSW,206,7.0,8.0,83,0.00,,---,0.03,VWS V14.00,2013-12-28 00:53:00,
2013-12-27 19:54:00,33.7,29.4,30.09,SSW,205,4.0,8.0,84,0.00,,---,0.03,VWS V14.00,2013-12-28 00:54:00,
2013-12-27 19:56:00,33.7,29.4,30.09,SSW,203,7.0,8.0,84,0.00,,---,0.03,VWS V14.00,2013-12-28 00:56:00,
2013-12-27 19:57:00,33.7,29.4,30.09,SSW,203,6.0,8.0,84,0.00,,---,0.03,VWS V14.00,2013-12-28 00:57:00,
2013-12-27 19:58:00,33.7,29.4,30.09,SSW,208,6.0,8.0,84,0.00,,---,0.03,VWS V14.00,2013-12-28 00:58:00,
2013-12-27 20:02:00,33.7,29.4,30.09,SSW,193,8.0,8.0,84,0.00,,---,0.03,VWS V14.00,2013-12-28 01:02:00,
2013-12-27 20:03:00,33.7,29.4,30.09,SSW,195,4.0,8.0,84,0.00,,---,0.03,VWS V14.00,2013-12-28 01:03:00,
2013-12-27 20:06:00,33.7,29.4,30.09,SSW,196,7.0,8.0,84,0.00,,---,0.03,VWS V14.00,2013-12-28 01:06:00,
2013-12-27 20:07:00,33.7,29.4,30.09,SSW,196,1.0,8.0,84,0.00,,---,0.03,VWS V14.00,2013-12-28 01:07:00,
2013-12-27 20:08:00,33.7,29.4,30.09,South,191,6.0,10.0,84,0.00,,---,0.03,VWS V14.00,2013-12-28 01:08:00,
2013-12-27 20:09:00,33.7,29.4,30.09,SSW,192,8.0,10.0,84,0.00,,---,0.03,VWS V14.00,2013-12-28 01:09:00,
2013-12-27 20:11:00,33.8,29.5,30.09,SSW,212,2.0,13.0,84,0.00,,---,0.03,VWS V14.00,2013-12-28 01:11:00,
2013-12-27 20:12:00,33.8,29.5,30.09,SSW,212,8.0,13.0,84,0.00,,---,0.03,VWS V14.00,2013-12-28 01:12:00,
2013-12-27 20:13:00,33.8,29.5,30.09,SSW,212,4.0,13.0,84,0.00,,---,0.03,VWS V14.00,2013-12-28 01:13:00,
2013-12-27 20:14:00,33.8,29.5,30.09,SW,215,4.0,13.0,84,0.00,,---,0.03,VWS V14.00,2013-12-28 01:14:00,
2013-12-27 20:16:00,33.8,29.5,30.09,SSW,212,2.0,13.0,84,0.00,,---,0.03,VWS V14.00,2013-12-28 01:16:00,
2013-12-27 20:17:00,33.8,29.5,30.09,SW,215,6.0,13.0,84,0.00,,---,0.03,VWS V14.00,2013-12-28 01:17:00,
2013-12-27 20:18:00,34.0,29.7,30.09,SSW,209,6.0,13.0,84,0.00,,---,0.03,VWS V14.00,2013-12-28 01:18:00,
2013-12-27 20:19:00,34.0,29.7,30.09,SW,215,4.0,13.0,84,0.00,,---,0.03,VWS V14.00,2013-12-28 01:19:00,
2013-12-27 20:21:00,34.0,29.7,30.09,SSW,205,6.0,13.0,84,0.00,,---,0.03,VWS V14.00,2013-12-28 01:21:00,
2013-12-27 20:22:00,34.0,29.7,30.09,SW,216,6.0,13.0,84,0.00,,---,0.03,VWS V14.00,2013-12-28 01:22:00,
2013-12-27 20:23:00,34.0,29.7,30.09,SSW,200,7.0,13.0,84,0.00,,---,0.03,VWS V14.00,2013-12-28 01:23:00,
2013-12-27 20:24:00,34.0,29.7,30.09,SSW,202,6.0,13.0,84,0.00,,---,0.03,VWS V14.00,2013-12-28 01:24:00,
2013-12-27 20:27:00,34.1,29.8,30.09,SW,215,8.0,13.0,84,0.00,,---,0.03,VWS V14.00,2013-12-28 01:27:00,
2013-12-27 20:28:00,34.1,29.8,30.09,SW,217,6.0,13.0,84,0.00,,---,0.03,VWS V14.00,2013-12-28 01:28:00,
2013-12-27 20:29:00,34.1,29.8,30.09,SSW,206,6.0,13.0,84,0.00,,---,0.03,VWS V14.00,2013-12-28 01:29:00,
2013-12-27 20:30:00,34.3,30.0,30.08,SSW,202,1.0,13.0,84,0.00,,---,0.03,VWS V14.00,2013-12-28 01:30:00,
2013-12-27 20:32:00,34.3,30.0,30.08,WSW,240,2.0,13.0,84,0.00,,---,0.03,VWS V14.00,2013-12-28 01:32:00,
2013-12-27 20:33:00,34.4,30.1,30.08,SSW,208,9.0,13.0,84,0.00,,---,0.03,VWS V14.00,2013-12-28 01:33:00,
2013-12-27 20:34:00,34.4,30.1,30.08,WSW,241,6.0,14.0,84,0.00,,---,0.03,VWS V14.00,2013-12-28 01:34:00,
2013-12-27 20:35:00,34.4,30.1,30.08,SSW,203,10.0,14.0,84,0.00,,---,0.03,VWS V14.00,2013-12-28 01:35:00,
2013-12-27 20:37:00,34.6,30.3,30.08,SSW,213,8.0,14.0,84,0.00,,---,0.03,VWS V14.00,2013-12-28 01:37:00,
2013-12-27 20:38:00,34.6,30.3,30.08,SW,215,15.0,15.0,84,0.00,,---,0.03,VWS V14.00,2013-12-28 01:38:00,
2013-12-27 20:39:00,34.6,30.3,30.08,SW,217,8.0,15.0,84,0.00,,---,0.03,VWS V14.00,2013-12-28 01:39:00,
2013-12-27 20:40:00,34.7,30.4,30.08,SW,216,10.0,15.0,84,0.00,,---,0.03,VWS V14.00,2013-12-28 01:40:00,
2013-12-27 20:43:00,34.9,30.3,30.08,SSW,208,14.0,15.0,83,0.00,,---,0.03,VWS V14.00,2013-12-28 01:43:00,
2013-12-27 20:44:00,34.9,30.3,30.08,WSW,240,7.0,15.0,83,0.00,,---,0.03,VWS V14.00,2013-12-28 01:44:00,
2013-12-27 20:45:00,35.0,30.4,30.07,SW,219,4.0,15.0,83,0.00,,---,0.03,VWS V14.00,2013-12-28 01:45:00,
2013-12-27 20:48:00,35.0,30.4,30.07,SW,233,7.0,15.0,83,0.00,,---,0.03,VWS V14.00,2013-12-28 01:48:00,
2013-12-27 20:49:00,35.0,30.4,30.07,SSW,196,8.0,15.0,83,0.00,,---,0.03,VWS V14.00,2013-12-28 01:49:00,
2013-12-27 20:50:00,35.0,30.1,30.07,SSW,199,6.0,15.0,82,0.00,,---,0.03,VWS V14.00,2013-12-28 01:50:00,
2013-12-27 20:53:00,35.2,30.3,30.07,SSW,210,9.0,15.0,82,0.00,,---,0.03,VWS V14.00,2013-12-28 01:53:00,
2013-12-27 20:54:00,35.2,30.3,30.07,SSW,210,7.0,15.0,82,0.00,,---,0.03,VWS V14.00,2013-12-28 01:54:00,
2013-12-27 20:55:00,35.2,30.3,30.07,SW,216,6.0,15.0,82,0.00,,---,0.03,VWS V14.00,2013-12-28 01:55:00,
2013-12-27 20:58:00,35.2,30.3,30.07,SSW,212,7.0,15.0,82,0.00,,---,0.03,VWS V14.00,2013-12-28 01:58:00,
2013-12-27 20:59:00,35.2,30.3,30.07,SSW,213,7.0,15.0,82,0.00,,---,0.03,VWS V14.00,2013-12-28 01:59:00,
2013-12-27 21:00:00,35.3,30.4,30.06,SSW,198,4.0,16.0,82,0.00,,---,0.03,VWS V14.00,2013-12-28 02:00:00,
2013-12-27 21:01:00,35.3,30.4,30.06,SSW,209,8.0,8.0,82,0.00,,---,0.03,VWS V14.00,2013-12-28 02:01:00,
2013-12-27 21:03:00,35.3,30.4,30.06,SW,223,7.0,16.0,82,0.00,,---,0.03,VWS V14.00,2013-12-28 02:03:00,
2013-12-27 21:04:00,35.3,30.4,30.06,SW,229,9.0,16.0,82,0.00,,---,0.03,VWS V14.00,2013-12-28 02:04:00,
2013-12-27 21:06:00,35.5,30.6,30.06,SW,226,11.0,16.0,82,0.00,,---,0.03,VWS V14.00,2013-12-28 02:06:00,
2013-12-27 21:08:00,35.5,30.6,30.06,SSW,208,6.0,16.0,82,0.00,,---,0.03,VWS V14.00,2013-12-28 02:08:00,
2013-12-27 21:09:00,35.6,30.7,30.06,SW,220,2.0,16.0,82,0.00,,---,0.03,VWS V14.00,2013-12-28 02:09:00,
2013-12-27 21:11:00,35.6,30.7,30.06,SW,216,13.0,16.0,82,0.00,,---,0.03,VWS V14.00,2013-12-28 02:11:00,
2013-12-27 21:13:00,35.8,30.9,30.06,SW,226,11.0,18.0,82,0.00,,---,0.03,VWS V14.00,2013-12-28 02:13:00,
2013-12-27 21:14:00,35.8,30.9,30.06,SSW,202,9.0,18.0,82,0.00,,---,0.03,VWS V14.00,2013-12-28 02:14:00,
2013-12-27 21:15:00,35.8,30.9,30.05,SSW,203,9.0,18.0,82,0.00,,---,0.03,VWS V14.00,2013-12-28 02:15:00,
2013-12-27 21:16:00,35.8,30.9,30.05,SW,217,9.0,18.0,82,0.00,,---,0.03,VWS V14.00,2013-12-28 02:16:00,
2013-12-27 21:18:00,35.8,30.5,30.05,SSW,203,4.0,18.0,81,0.00,,---,0.03,VWS V14.00,2013-12-28 02:18:00,
2013-12-27 21:19:00,35.8,30.5,30.05,SW,219,14.0,18.0,81,0.00,,---,0.03,VWS V14.00,2013-12-28 02:19:00,
2013-12-27 21:20:00,35.8,30.5,30.05,SSW,210,8.0,18.0,81,0.00,,---,0.03,VWS V14.00,2013-12-28 02:20:00,
2013-12-27 21:21:00,35.8,30.5,30.05,SW,226,7.0,18.0,81,0.00,,---,0.03,VWS V14.00,2013-12-28 02:21:00,
2013-12-27 21:22:00,35.9,30.6,30.05,SW,216,9.0,18.0,81,0.00,,---,0.03,VWS V14.00,2013-12-28 02:22:00,
2013-12-27 21:23:00,35.9,30.6,30.05,SSW,198,2.0,18.0,81,0.00,,---,0.03,VWS V14.00,2013-12-28 02:23:00,
2013-12-27 21:24:00,35.9,30.6,30.05,SSW,200,9.0,18.0,81,0.00,,---,0.03,VWS V14.00,2013-12-28 02:24:00,
2013-12-27 21:25:00,35.9,30.6,30.05,SW,220,11.0,18.0,81,0.00,,---,0.03,VWS V14.00,2013-12-28 02:25:00,
2013-12-27 21:26:00,35.9,30.6,30.05,SW,223,11.0,18.0,81,0.00,,---,0.03,VWS V14.00,2013-12-28 02:26:00,
2013-12-27 21:27:00,35.9,30.6,30.05,SW,222,9.0,18.0,81,0.00,,---,0.03,VWS V14.00,2013-12-28 02:27:00,
2013-12-27 21:28:00,35.9,30.6,30.05,SSW,213,11.0,18.0,81,0.00,,---,0.03,VWS V14.00,2013-12-28 02:28:00,
2013-12-27 21:29:00,35.9,30.6,30.05,SW,217,8.0,18.0,81,0.00,,---,0.03,VWS V14.00,2013-12-28 02:29:00,
2013-12-27 21:30:00,35.9,30.6,30.05,SSW,213,8.0,18.0,81,0.00,,---,0.03,VWS V14.00,2013-12-28 02:30:00,
2013-12-27 21:31:00,35.9,30.6,30.05,SW,232,6.0,18.0,81,0.00,,---,0.03,VWS V14.00,2013-12-28 02:31:00,
2013-12-27 21:33:00,35.9,30.6,30.05,SSW,200,8.0,18.0,81,0.00,,---,0.03,VWS V14.00,2013-12-28 02:33:00,
2013-12-27 21:34:00,35.9,30.6,30.05,South,188,7.0,18.0,81,0.00,,---,0.03,VWS V14.00,2013-12-28 02:34:00,
2013-12-27 21:35:00,35.9,30.6,30.05,SSW,213,8.0,18.0,81,0.00,,---,0.03,VWS V14.00,2013-12-28 02:35:00,
2013-12-27 21:36:00,35.9,30.6,30.05,SSW,210,11.0,18.0,81,0.00,,---,0.03,VWS V14.00,2013-12-28 02:36:00,
2013-12-27 21:38:00,35.9,30.6,30.05,SW,223,10.0,18.0,81,0.00,,---,0.03,VWS V14.00,2013-12-28 02:38:00,
2013-12-27 21:39:00,35.9,30.6,30.05,WSW,257,9.0,18.0,81,0.00,,---,0.03,VWS V14.00,2013-12-28 02:39:00,
2013-12-27 21:41:00,35.9,30.6,30.05,SW,222,8.0,18.0,81,0.00,,---,0.03,VWS V14.00,2013-12-28 02:41:00,
2013-12-27 21:43:00,35.9,30.6,30.05,SSW,213,9.0,18.0,81,0.00,,---,0.03,VWS V14.00,2013-12-28 02:43:00,
2013-12-27 21:45:00,35.9,30.6,30.04,SW,227,8.0,18.0,81,0.00,,---,0.03,VWS V14.00,2013-12-28 02:45:00,
2013-12-27 21:46:00,35.9,30.6,30.04,SSW,209,8.0,18.0,81,0.00,,---,0.03,VWS V14.00,2013-12-28 02:46:00,
2013-12-27 21:47:00,35.9,30.6,30.04,SSW,209,9.0,18.0,81,0.00,,---,0.03,VWS V14.00,2013-12-28 02:47:00,
2013-12-27 21:48:00,35.9,30.6,30.04,SW,229,11.0,18.0,81,0.00,,---,0.03,VWS V14.00,2013-12-28 02:48:00,
2013-12-27 21:49:00,35.9,30.6,30.04,SSW,212,8.0,18.0,81,0.00,,---,0.03,VWS V14.00,2013-12-28 02:49:00,
2013-12-27 21:50:00,35.9,30.6,30.04,SSW,205,10.0,18.0,81,0.00,,---,0.03,VWS V14.00,2013-12-28 02:50:00,
2013-12-27 21:51:00,35.9,30.6,30.04,SW,217,10.0,18.0,81,0.00,,---,0.03,VWS V14.00,2013-12-28 02:51:00,
2013-12-27 21:52:00,35.9,30.6,30.04,SW,219,14.0,18.0,81,0.00,,---,0.03,VWS V14.00,2013-12-28 02:52:00,
2013-12-27 21:54:00,36.0,30.8,30.04,SW,222,10.0,18.0,81,0.00,,---,0.03,VWS V14.00,2013-12-28 02:54:00,
2013-12-27 21:55:00,36.0,30.8,30.04,SW,220,8.0,18.0,81,0.00,,---,0.03,VWS V14.00,2013-12-28 02:55:00,
2013-12-27 21:56:00,36.0,30.8,30.04,SSW,213,14.0,18.0,81,0.00,,---,0.03,VWS V14.00,2013-12-28 02:56:00,
2013-12-27 21:57:00,36.0,30.8,30.04,SSW,208,2.0,18.0,81,0.00,,---,0.03,VWS V14.00,2013-12-28 02:57:00,
2013-12-27 21:59:00,36.0,30.4,30.04,SW,216,7.0,18.0,80,0.00,,---,0.03,VWS V14.00,2013-12-28 02:59:00,
2013-12-27 22:00:00,36.0,30.4,30.04,SW,220,10.0,18.0,80,0.00,,---,0.03,VWS V14.00,2013-12-28 03:00:00,
2013-12-27 22:01:00,36.0,30.4,30.04,SSW,213,9.0,9.0,80,0.00,,---,0.03,VWS V14.00,2013-12-28 03:01:00,
2013-12-27 22:02:00,36.0,30.4,30.04,SW,215,9.0,14.0,80,0.00,,---,0.03,VWS V14.00,2013-12-28 03:02:00,
2013-12-27 22:03:00,36.0,30.4,30.04,SW,236,10.0,14.0,80,0.00,,---,0.03,VWS V14.00,2013-12-28 03:03:00,
2013-12-27 22:04:00,36.0,30.4,30.04,SSW,210,17.0,22.0,80,0.00,,---,0.03,VWS V14.00,2013-12-28 03:04:00,
2013-12-27 22:05:00,36.0,30.4,30.04,SSW,210,9.0,22.0,80,0.00,,---,0.03,VWS V14.00,2013-12-28 03:05:00,
2013-12-27 22:06:00,36.0,30.4,30.04,SSW,213,10.0,22.0,80,0.00,,---,0.03,VWS V14.00,2013-12-28 03:06:00,
2013-12-27 22:07:00,36.0,30.4,30.04,SW,215,6.0,22.0,80,0.00,,---,0.03,VWS V14.00,2013-12-28 03:07:00,
2013-12-27 22:08:00,36.0,30.4,30.04,WSW,253,17.0,22.0,80,0.00,,---,0.03,VWS V14.00,2013-12-28 03:08:00,
2013-12-27 22:09:00,36.0,30.4,30.04,SSW,192,11.0,22.0,80,0.00,,---,0.03,VWS V14.00,2013-12-28 03:09:00,
2013-12-27 22:10:00,36.0,30.4,30.04,SW,226,10.0,22.0,80,0.00,,---,0.03,VWS V14.00,2013-12-28 03:10:00,
2013-12-27 22:11:00,35.9,30.3,30.04,NW,304,8.0,22.0,80,0.00,,---,0.03,VWS V14.00,2013-12-28 03:11:00,
2013-12-27 22:12:00,35.9,30.3,30.04,SW,215,13.0,22.0,80,0.00,,---,0.03,VWS V14.00,2013-12-28 03:12:00,
2013-12-27 22:13:00,35.9,30.3,30.04,SW,229,14.0,22.0,80,0.00,,---,0.03,VWS V14.00,2013-12-28 03:13:00,
2013-12-27 22:14:00,35.9,30.3,30.04,WSW,247,7.0,22.0,80,0.00,,---,0.03,VWS V14.00,2013-12-28 03:14:00,
2013-12-27 22:15:00,35.9,30.3,30.03,SW,217,13.0,22.0,80,0.00,,---,0.03,VWS V14.00,2013-12-28 03:15:00,
2013-12-27 22:16:00,35.9,30.3,30.03,SSW,213,14.0,22.0,80,0.00,,---,0.03,VWS V14.00,2013-12-28 03:16:00,
2013-12-27 22:17:00,35.9,30.3,30.03,SSW,209,13.0,22.0,80,0.00,,---,0.03,VWS V14.00,2013-12-28 03:17:00,
2013-12-27 22:18:00,35.9,30.3,30.03,SSW,210,8.0,22.0,80,0.00,,---,0.03,VWS V14.00,2013-12-28 03:18:00,
2013-12-27 22:19:00,35.9,30.3,30.03,SW,220,11.0,22.0,80,0.00,,---,0.03,VWS V14.00,2013-12-28 03:19:00,
2013-12-27 22:20:00,35.9,30.3,30.03,SW,234,10.0,22.0,80,0.00,,---,0.03,VWS V14.00,2013-12-28 03:20:00,
2013-12-27 22:21:00,35.9,30.3,30.03,SSW,193,7.0,22.0,80,0.00,,---,0.03,VWS V14.00,2013-12-28 03:21:00,
2013-12-27 22:22:00,35.9,30.3,30.03,SSW,210,10.0,22.0,80,0.00,,---,0.03,VWS V14.00,2013-12-28 03:22:00,
2013-12-27 22:23:00,35.9,30.3,30.03,SW,216,15.0,22.0,80,0.00,,---,0.03,VWS V14.00,2013-12-28 03:23:00,
2013-12-27 22:25:00,36.0,30.4,30.03,SW,234,2.0,22.0,80,0.00,,---,0.03,VWS V14.00,2013-12-28 03:25:00,
2013-12-27 22:26:00,36.0,30.4,30.03,SW,224,10.0,22.0,80,0.00,,---,0.03,VWS V14.00,2013-12-28 03:26:00,
2013-12-27 22:27:00,36.0,30.4,30.03,SSW,208,7.0,22.0,80,0.00,,---,0.03,VWS V14.00,2013-12-28 03:27:00,
2013-12-27 22:28:00,36.0,30.4,30.03,SW,215,9.0,22.0,80,0.00,,---,0.03,VWS V14.00,2013-12-28 03:28:00,
2013-12-27 22:30:00,36.0,30.4,30.02,SSW,200,11.0,22.0,80,0.00,,---,0.03,VWS V14.00,2013-12-28 03:30:00,
2013-12-27 22:32:00,36.0,30.4,30.02,SW,227,6.0,22.0,80,0.00,,---,0.03,VWS V14.00,2013-12-28 03:32:00,
2013-12-27 22:33:00,36.0,30.4,30.02,South,189,7.0,22.0,80,0.00,,---,0.03,VWS V14.00,2013-12-28 03:33:00,
2013-12-27 22:35:00,36.0,30.4,30.02,SSW,205,10.0,22.0,80,0.00,,---,0.03,VWS V14.00,2013-12-28 03:35:00,
2013-12-27 22:37:00,36.2,30.6,30.02,SSW,203,10.0,22.0,80,0.00,,---,0.03,VWS V14.00,2013-12-28 03:37:00,
2013-12-27 22:38:00,36.2,30.6,30.02,SW,226,16.0,22.0,80,0.00,,---,0.03,VWS V14.00,2013-12-28 03:38:00,
2013-12-27 22:39:00,36.2,30.6,30.02,SW,222,8.0,22.0,80,0.00,,---,0.03,VWS V14.00,2013-12-28 03:39:00,
2013-12-27 22:40:00,36.2,30.6,30.02,SW,232,10.0,22.0,80,0.00,,---,0.03,VWS V14.00,2013-12-28 03:40:00,
2013-12-27 22:42:00,36.2,30.6,30.02,SW,227,8.0,22.0,80,0.00,,---,0.03,VWS V14.00,2013-12-28 03:42:00,
2013-12-27 22:43:00,36.2,30.6,30.02,SW,234,11.0,22.0,80,0.00,,---,0.03,VWS V14.00,2013-12-28 03:43:00,
2013-12-27 22:44:00,36.2,30.6,30.02,SW,230,9.0,22.0,80,0.00,,---,0.03,VWS V14.00,2013-12-28 03:44:00,
2013-12-27 22:45:00,36.2,30.6,30.01,SW,226,10.0,22.0,80,0.00,,---,0.03,VWS V14.00,2013-12-28 03:45:00,
2013-12-27 22:46:00,36.3,30.7,30.01,SSW,213,11.0,22.0,80,0.00,,---,0.03,VWS V14.00,2013-12-28 03:46:00,
2013-12-27 22:47:00,36.3,30.7,30.01,SW,217,10.0,22.0,80,0.00,,---,0.03,VWS V14.00,2013-12-28 03:47:00,
2013-12-27 22:48:00,36.3,30.7,30.01,SW,227,13.0,22.0,80,0.00,,---,0.03,VWS V14.00,2013-12-28 03:48:00,
2013-12-27 22:49:00,36.3,30.7,30.01,SW,222,13.0,22.0,80,0.00,,---,0.03,VWS V14.00,2013-12-28 03:49:00,
2013-12-27 22:50:00,36.3,30.7,30.01,SSW,208,9.0,22.0,80,0.00,,---,0.03,VWS V14.00,2013-12-28 03:50:00,
2013-12-27 22:51:00,36.3,30.7,30.01,SW,229,14.0,22.0,80,0.00,,---,0.03,VWS V14.00,2013-12-28 03:51:00,
2013-12-27 22:52:00,36.5,30.9,30.01,SW,217,10.0,22.0,80,0.00,,---,0.03,VWS V14.00,2013-12-28 03:52:00,
2013-12-27 22:53:00,36.5,30.9,30.01,SW,223,11.0,22.0,80,0.00,,---,0.03,VWS V14.00,2013-12-28 03:53:00,
2013-12-27 22:54:00,36.5,30.6,30.01,SW,220,10.0,22.0,79,0.00,,---,0.03,VWS V14.00,2013-12-28 03:54:00,
2013-12-27 22:55:00,36.5,30.6,30.01,SSW,212,14.0,22.0,79,0.00,,---,0.03,VWS V14.00,2013-12-28 03:55:00,
2013-12-27 22:56:00,36.5,30.6,30.01,SSW,202,11.0,22.0,79,0.00,,---,0.03,VWS V14.00,2013-12-28 03:56:00,
2013-12-27 22:57:00,36.5,30.6,30.01,SW,219,10.0,22.0,79,0.00,,---,0.03,VWS V14.00,2013-12-28 03:57:00,
2013-12-27 22:58:00,36.5,30.6,30.01,SW,224,9.0,22.0,79,0.00,,---,0.03,VWS V14.00,2013-12-28 03:58:00,
2013-12-27 22:59:00,36.5,30.6,30.01,SW,220,13.0,22.0,79,0.00,,---,0.03,VWS V14.00,2013-12-28 03:59:00,
2013-12-27 23:00:00,36.5,30.6,30.01,SW,215,8.0,22.0,79,0.00,,---,0.03,VWS V14.00,2013-12-28 04:00:00,
2013-12-27 23:01:00,36.5,30.6,30.01,SW,226,6.0,8.0,79,0.00,,---,0.00,VWS V14.00,2013-12-28 04:01:00,
2013-12-27 23:02:00,36.5,30.6,30.01,SSW,199,9.0,15.0,79,0.00,,---,0.00,VWS V14.00,2013-12-28 04:02:00,
2013-12-27 23:03:00,36.5,30.6,30.01,SW,233,9.0,18.0,79,0.00,,---,0.00,VWS V14.00,2013-12-28 04:03:00,
2013-12-27 23:04:00,36.5,30.6,30.01,SSW,210,13.0,18.0,79,0.00,,---,0.00,VWS V14.00,2013-12-28 04:04:00,
2013-12-27 23:05:00,36.5,30.6,30.01,WSW,240,9.0,18.0,79,0.00,,---,0.00,VWS V14.00,2013-12-28 04:05:00,
2013-12-27 23:06:00,36.5,30.6,30.01,SW,224,10.0,18.0,79,0.00,,---,0.00,VWS V14.00,2013-12-28 04:06:00,
2013-12-27 23:08:00,36.6,30.7,30.01,WSW,243,4.0,18.0,79,0.00,,---,0.00,VWS V14.00,2013-12-28 04:08:00,
2013-12-27 23:09:00,36.6,30.7,30.01,SW,224,9.0,18.0,79,0.00,,---,0.00,VWS V14.00,2013-12-28 04:09:00,
2013-12-27 23:10:00,36.6,30.7,30.01,SW,223,14.0,18.0,79,0.00,,---,0.00,VWS V14.00,2013-12-28 04:10:00,
2013-12-27 23:11:00,36.6,30.7,30.01,SW,229,4.0,18.0,79,0.00,,---,0.00,VWS V14.00,2013-12-28 04:11:00,
2013-12-27 23:13:00,36.6,30.7,30.01,SW,217,13.0,18.0,79,0.00,,---,0.00,VWS V14.00,2013-12-28 04:13:00,
2013-12-27 23:15:00,36.6,30.7,30.01,South,188,7.0,18.0,79,0.00,,---,0.00,VWS V14.00,2013-12-28 04:15:00,
2013-12-27 23:16:00,36.6,30.7,30.01,SW,215,9.0,18.0,79,0.00,,---,0.00,VWS V14.00,2013-12-28 04:16:00,
2013-12-27 23:18:00,36.6,30.7,30.01,SSW,195,8.0,18.0,79,0.00,,---,0.00,VWS V14.00,2013-12-28 04:18:00,
2013-12-27 23:20:00,36.6,30.7,30.01,SW,226,10.0,18.0,79,0.00,,---,0.00,VWS V14.00,2013-12-28 04:20:00,
2013-12-27 23:21:00,36.8,30.9,30.01,SSW,213,15.0,18.0,79,0.00,,---,0.00,VWS V14.00,2013-12-28 04:21:00,
2013-12-27 23:22:00,36.8,30.9,30.01,SW,220,14.0,18.0,79,0.00,,---,0.00,VWS V14.00,2013-12-28 04:22:00,
2013-12-27 23:24:00,36.8,30.9,30.01,SW,216,10.0,18.0,79,0.00,,---,0.00,VWS V14.00,2013-12-28 04:24:00,
2013-12-27 23:25:00,36.8,30.9,30.01,SW,219,14.0,18.0,79,0.00,,---,0.00,VWS V14.00,2013-12-28 04:25:00,
2013-12-27 23:26:00,36.8,30.9,30.01,SW,220,10.0,21.0,79,0.00,,---,0.00,VWS V14.00,2013-12-28 04:26:00,
2013-12-27 23:27:00,36.8,30.9,30.01,SW,236,16.0,21.0,79,0.00,,---,0.00,VWS V14.00,2013-12-28 04:27:00,
2013-12-27 23:30:00,36.9,31.0,30.01,SW,217,16.0,21.0,79,0.00,,---,0.00,VWS V14.00,2013-12-28 04:30:00,
2013-12-27 23:31:00,36.9,31.0,30.01,SW,222,13.0,21.0,79,0.00,,---,0.00,VWS V14.00,2013-12-28 04:31:00,
2013-12-27 23:32:00,36.9,31.0,30.01,SSW,205,9.0,23.0,79,0.00,,---,0.00,VWS V14.00,2013-12-28 04:32:00,
2013-12-27 23:35:00,36.9,30.7,30.01,SSW,209,11.0,23.0,78,0.00,,---,0.00,VWS V14.00,2013-12-28 04:35:00,
2013-12-27 23:36:00,36.9,30.7,30.01,SSW,200,7.0,23.0,78,0.00,,---,0.00,VWS V14.00,2013-12-28 04:36:00,
2013-12-27 23:38:00,36.9,30.7,30.01,SSW,208,6.0,23.0,78,0.00,,---,0.00,VWS V14.00,2013-12-28 04:38:00,
2013-12-27 23:40:00,36.8,30.9,30.01,SW,227,8.0,23.0,79,0.00,,---,0.00,VWS V14.00,2013-12-28 04:40:00,
2013-12-27 23:41:00,36.8,30.9,30.01,SW,219,15.0,23.0,79,0.00,,---,0.00,VWS V14.00,2013-12-28 04:41:00,
2013-12-27 23:42:00,36.8,30.9,30.01,SW,217,8.0,23.0,79,0.00,,---,0.00,VWS V14.00,2013-12-28 04:42:00,
2013-12-27 23:43:00,36.8,30.9,30.01,SSW,203,11.0,23.0,79,0.00,,---,0.00,VWS V14.00,2013-12-28 04:43:00,
2013-12-27 23:45:00,36.8,30.9,30.00,SW,216,8.0,23.0,79,0.00,,---,0.00,VWS V14.00,2013-12-28 04:45:00,
2013-12-27 23:46:00,36.8,30.9,30.00,SW,215,6.0,23.0,79,0.00,,---,0.00,VWS V14.00,2013-12-28 04:46:00,
2013-12-27 23:47:00,36.8,30.9,30.00,SSW,212,9.0,23.0,79,0.00,,---,0.00,VWS V14.00,2013-12-28 04:47:00,
2013-12-27 23:48:00,36.8,30.9,30.00,WSW,258,2.0,23.0,79,0.00,,---,0.00,VWS V14.00,2013-12-28 04:48:00,
2013-12-27 23:51:00,36.8,30.9,30.00,SSW,203,14.0,23.0,79,0.00,,---,0.00,VWS V14.00,2013-12-28 04:51:00,
2013-12-27 23:52:00,36.9,31.0,30.00,WSW,243,18.0,23.0,79,0.00,,---,0.00,VWS V14.00,2013-12-28 04:52:00,
2013-12-27 23:53:00,36.9,31.0,30.00,SW,222,11.0,23.0,79,0.00,,---,0.00,VWS V14.00,2013-12-28 04:53:00,
2013-12-27 23:56:00,36.9,31.0,30.00,SSW,199,9.0,23.0,79,0.00,,---,0.00,VWS V14.00,2013-12-28 04:56:00,
2013-12-27 23:57:00,36.9,31.0,30.00,SSW,206,13.0,23.0,79,0.00,,---,0.00,VWS V14.00,2013-12-28 04:57:00,
2013-12-27 23:58:00,36.9,31.0,30.00,WSW,253,9.0,23.0,79,0.00,,---,0.00,VWS V14.00,2013-12-28 04:58:00,